Time,TemperatureF,DewpointF,PressureIn,WindDirection,WindDirectionDegrees,WindSpeedMPH,WindSpeedGustMPH,Humidity,HourlyPrecipIn,Conditions,Clouds,dailyrainin,SoftwareType,DateUTC
2013-07-13 00:01:00,64.6,64.6,30.37,NE,45,3.0,6.0,0,0.00,,,0.00,meteohub,2013-07-13 04:01:00,
2013-07-13 00:02:00,64.6,64.6,30.37,NE,45,3.0,6.0,0,0.00,,,0.00,meteohub,2013-07-13 04:02:00,
2013-07-13 00:05:00,64.6,64.6,30.37,NE,45,3.0,6.0,0,0.00,,,0.00,meteohub,2013-07-13 04:05:00,
2013-07-13 00:06:00,64.6,64.6,30.37,NE,45,3.0,6.0,0,0.00,,,0.00,meteohub,2013-07-13 04:06:00,
2013-07-13 00:07:00,64.6,64.6,30.38,NE,45,3.0,6.0,0,0.00,,,0.00,meteohub,2013-07-13 04:07:00,
2013-07-13 00:09:00,64.4,64.4,30.37,WSW,248,1.0,6.0,0,0.00,,,0.00,meteohub,2013-07-13 04:09:00,
2013-07-13 00:11:00,64.4,64.4,30.37,East,90,5.0,5.0,0,0.00,,,0.00,meteohub,2013-07-13 04:11:00,
2013-07-13 00:12:00,64.4,64.4,30.37,East,90,5.0,5.0,0,0.00,,,0.00,meteohub,2013-07-13 04:12:00,
2013-07-13 00:13:00,64.4,64.4,30.37,East,90,2.0,5.0,0,0.00,,,0.00,meteohub,2013-07-13 04:13:00,
2013-07-13 00:15:00,64.6,64.6,30.37,East,90,4.0,5.0,0,0.00,,,0.00,meteohub,2013-07-13 04:15:00,
2013-07-13 00:16:00,64.6,64.6,30.37,NE,45,4.0,7.0,0,0.00,,,0.00,meteohub,2013-07-13 04:16:00,
2013-07-13 00:17:00,64.6,64.6,30.36,East,90,2.0,7.0,0,0.00,,,0.00,meteohub,2013-07-13 04:17:00,
2013-07-13 00:19:00,64.6,64.6,30.37,East,90,4.0,7.0,0,0.00,,,0.00,meteohub,2013-07-13 04:19:00,
2013-07-13 00:20:00,64.6,64.6,30.36,East,90,4.0,7.0,0,0.00,,,0.00,meteohub,2013-07-13 04:20:00,
2013-07-13 00:21:00,64.6,64.6,30.36,SE,135,4.0,7.0,0,0.00,,,0.00,meteohub,2013-07-13 04:21:00,
2013-07-13 00:22:00,64.6,64.6,30.37,SE,135,8.0,8.0,0,0.00,,,0.00,meteohub,2013-07-13 04:22:00,
2013-07-13 00:23:00,64.8,64.8,30.36,SE,135,2.0,7.0,0,0.00,,,0.00,meteohub,2013-07-13 04:23:00,
2013-07-13 00:25:00,64.8,64.8,30.37,East,90,4.0,8.0,0,0.00,,,0.00,meteohub,2013-07-13 04:25:00,
2013-07-13 00:27:00,64.8,64.8,30.37,SE,135,4.0,8.0,0,0.00,,,0.00,meteohub,2013-07-13 04:27:00,
2013-07-13 00:29:00,64.8,64.8,30.37,East,90,2.0,8.0,0,0.00,,,0.00,meteohub,2013-07-13 04:29:00,
2013-07-13 00:31:00,64.8,64.8,30.36,SE,135,2.0,8.0,0,0.00,,,0.00,meteohub,2013-07-13 04:31:00,
2013-07-13 00:32:00,64.8,64.8,30.36,SE,135,2.0,8.0,0,0.00,,,0.00,meteohub,2013-07-13 04:32:00,
2013-07-13 00:33:00,64.8,64.8,30.36,SE,135,4.0,8.0,0,0.00,,,0.00,meteohub,2013-07-13 04:33:00,
2013-07-13 00:35:00,64.8,64.8,30.36,South,180,2.0,8.0,0,0.00,,,0.00,meteohub,2013-07-13 04:35:00,
2013-07-13 00:37:00,64.8,64.8,30.37,SE,135,2.0,8.0,0,0.00,,,0.00,meteohub,2013-07-13 04:37:00,
2013-07-13 00:40:00,64.6,64.6,30.36,East,90,2.0,8.0,0,0.00,,,0.00,meteohub,2013-07-13 04:40:00,
2013-07-13 00:41:00,64.6,64.6,30.36,SE,135,5.0,6.0,0,0.00,,,0.00,meteohub,2013-07-13 04:41:00,
2013-07-13 00:42:00,64.6,64.6,30.36,South,180,2.0,6.0,0,0.00,,,0.00,meteohub,2013-07-13 04:42:00,
2013-07-13 00:43:00,64.6,64.6,30.36,East,90,2.0,6.0,0,0.00,,,0.00,meteohub,2013-07-13 04:43:00,
2013-07-13 00:46:00,64.6,64.6,30.37,South,180,4.0,6.0,0,0.00,,,0.00,meteohub,2013-07-13 04:46:00,
2013-07-13 00:47:00,64.6,64.6,30.36,SE,135,3.0,6.0,0,0.00,,,0.00,meteohub,2013-07-13 04:47:00,
2013-07-13 00:48:00,64.6,64.6,30.36,North,0,4.0,6.0,0,0.00,,,0.00,meteohub,2013-07-13 04:48:00,
2013-07-13 00:50:00,64.6,64.6,30.36,East,90,4.0,6.0,0,0.00,,,0.00,meteohub,2013-07-13 04:50:00,
2013-07-13 00:52:00,64.6,64.6,30.36,NE,45,3.0,6.0,0,0.00,,,0.00,meteohub,2013-07-13 04:52:00,
2013-07-13 00:53:00,64.6,64.6,30.36,East,90,4.0,6.0,0,0.00,,,0.00,meteohub,2013-07-13 04:53:00,
2013-07-13 00:55:00,64.6,64.6,30.36,South,180,5.0,7.0,0,0.00,,,0.00,meteohub,2013-07-13 04:55:00,
2013-07-13 00:57:00,64.6,64.6,30.36,NE,45,5.0,7.0,0,0.00,,,0.00,meteohub,2013-07-13 04:57:00,
2013-07-13 00:59:00,64.6,64.6,30.36,East,90,6.0,7.0,0,0.00,,,0.00,meteohub,2013-07-13 04:59:00,
2013-07-13 01:00:00,64.6,64.6,30.36,SE,135,4.0,7.0,0,0.00,,,0.00,meteohub,2013-07-13 05:00:00,
2013-07-13 01:01:00,64.6,64.6,30.36,SE,135,4.0,7.0,0,0.00,,,0.00,meteohub,2013-07-13 05:01:00,
2013-07-13 01:02:00,64.6,64.6,30.36,SE,135,4.0,7.0,0,0.00,,,0.00,meteohub,2013-07-13 05:02:00,
2013-07-13 01:05:00,64.6,64.6,30.36,SE,135,4.0,7.0,0,0.00,,,0.00,meteohub,2013-07-13 05:05:00,
2013-07-13 01:06:00,64.6,64.6,30.36,SE,135,4.0,7.0,0,0.00,,,0.00,meteohub,2013-07-13 05:06:00,
2013-07-13 01:07:00,64.6,64.6,30.36,WSW,248,2.0,7.0,0,0.00,,,0.00,meteohub,2013-07-13 05:07:00,
2013-07-13 01:08:00,64.6,64.6,30.36,WSW,248,2.0,7.0,0,0.00,,,0.00,meteohub,2013-07-13 05:08:00,
2013-07-13 01:10:00,64.4,64.4,30.36,SE,135,5.0,6.0,0,0.00,,,0.00,meteohub,2013-07-13 05:10:00,
2013-07-13 01:11:00,64.4,64.4,30.36,NE,45,7.0,7.0,0,0.00,,,0.00,meteohub,2013-07-13 05:11:00,
2013-07-13 01:12:00,64.4,64.4,30.36,NE,45,7.0,7.0,0,0.00,,,0.00,meteohub,2013-07-13 05:12:00,
2013-07-13 01:13:00,64.4,64.4,30.36,South,180,6.0,6.0,0,0.00,,,0.00,meteohub,2013-07-13 05:13:00,
2013-07-13 01:15:00,64.4,64.4,30.36,NW,315,4.0,7.0,0,0.00,,,0.00,meteohub,2013-07-13 05:15:00,
2013-07-13 01:17:00,64.4,64.4,30.36,SE,135,3.0,7.0,0,0.00,,,0.00,meteohub,2013-07-13 05:17:00,
2013-07-13 01:18:00,64.4,64.4,30.36,North,0,3.0,7.0,0,0.00,,,0.00,meteohub,2013-07-13 05:18:00,
2013-07-13 01:19:00,64.4,64.4,30.36,East,90,4.0,7.0,0,0.00,,,0.00,meteohub,2013-07-13 05:19:00,
2013-07-13 01:22:00,64.4,64.4,30.36,NE,45,4.0,7.0,0,0.00,,,0.00,meteohub,2013-07-13 05:22:00,
2013-07-13 01:24:00,64.4,64.4,30.36,East,90,3.0,7.0,0,0.00,,,0.00,meteohub,2013-07-13 05:24:00,
2013-07-13 01:25:00,64.4,64.4,30.36,SE,135,4.0,7.0,0,0.00,,,0.00,meteohub,2013-07-13 05:25:00,
2013-07-13 01:27:00,64.2,6.4,30.36,ESE,113,2.0,7.0,10,0.00,,,0.00,meteohub,2013-07-13 05:27:00,
2013-07-13 01:29:00,64.2,6.4,30.35,East,90,4.0,7.0,10,0.00,,,0.00,meteohub,2013-07-13 05:29:00,
2013-07-13 01:30:00,64.2,6.4,30.36,NW,315,7.0,7.0,10,0.00,,,0.00,meteohub,2013-07-13 05:30:00,
2013-07-13 01:33:00,64.2,6.4,30.36,North,0,3.0,6.0,10,0.00,,,0.00,meteohub,2013-07-13 05:33:00,
2013-07-13 01:35:00,64.2,6.4,30.36,NE,45,2.0,7.0,10,0.00,,,0.00,meteohub,2013-07-13 05:35:00,
2013-07-13 01:36:00,64.2,6.4,30.36,East,90,2.0,7.0,10,0.00,,,0.00,meteohub,2013-07-13 05:36:00,
2013-07-13 01:38:00,64.2,8.6,30.36,South,180,3.0,7.0,11,0.00,,,0.00,meteohub,2013-07-13 05:38:00,
2013-07-13 01:40:00,64.2,8.6,30.36,North,0,3.0,7.0,11,0.00,,,0.00,meteohub,2013-07-13 05:40:00,
2013-07-13 01:41:00,64.2,8.6,30.36,North,0,3.0,7.0,11,0.00,,,0.00,meteohub,2013-07-13 05:41:00,
2013-07-13 01:42:00,64.2,8.6,30.36,SE,135,2.0,7.0,11,0.00,,,0.00,meteohub,2013-07-13 05:42:00,
2013-07-13 01:44:00,64.2,8.6,30.36,SE,135,3.0,7.0,11,0.00,,,0.00,meteohub,2013-07-13 05:44:00,
2013-07-13 01:46:00,64.2,8.6,30.36,SE,135,3.0,8.0,11,0.00,,,0.00,meteohub,2013-07-13 05:46:00,
2013-07-13 01:47:00,64.2,8.6,30.35,South,180,5.0,8.0,11,0.00,,,0.00,meteohub,2013-07-13 05:47:00,
2013-07-13 01:48:00,64.2,8.6,30.35,SE,135,4.0,8.0,11,0.00,,,0.00,meteohub,2013-07-13 05:48:00,
2013-07-13 01:49:00,64.2,8.6,30.35,SE,135,7.0,8.0,11,0.00,,,0.00,meteohub,2013-07-13 05:49:00,
2013-07-13 01:51:00,64.2,10.6,30.35,SE,135,2.0,8.0,12,0.00,,,0.00,meteohub,2013-07-13 05:51:00,
2013-07-13 01:52:00,64.2,10.6,30.35,SE,135,4.0,8.0,12,0.00,,,0.00,meteohub,2013-07-13 05:52:00,
2013-07-13 01:53:00,64.2,10.6,30.35,East,90,8.0,8.0,12,0.00,,,0.00,meteohub,2013-07-13 05:53:00,
2013-07-13 01:54:00,64.2,10.6,30.35,NW,315,4.0,8.0,12,0.00,,,0.00,meteohub,2013-07-13 05:54:00,
2013-07-13 01:55:00,64.2,10.6,30.35,East,90,3.0,8.0,12,0.00,,,0.00,meteohub,2013-07-13 05:55:00,
2013-07-13 01:57:00,64.0,10.4,30.36,East,90,3.0,8.0,12,0.00,,,0.00,meteohub,2013-07-13 05:57:00,
2013-07-13 01:58:00,64.2,10.6,30.35,South,180,4.0,8.0,12,0.00,,,0.00,meteohub,2013-07-13 05:58:00,
2013-07-13 01:59:00,64.0,10.4,30.35,WSW,248,2.0,8.0,12,0.00,,,0.00,meteohub,2013-07-13 05:59:00,
2013-07-13 02:00:00,64.0,10.4,30.35,SE,135,3.0,8.0,12,0.00,,,0.00,meteohub,2013-07-13 06:00:00,
2013-07-13 02:02:00,64.0,10.4,30.35,SE,135,3.0,8.0,12,0.00,,,0.00,meteohub,2013-07-13 06:02:00,
2013-07-13 02:03:00,64.0,10.4,30.36,SE,135,3.0,8.0,12,0.00,,,0.00,meteohub,2013-07-13 06:03:00,
2013-07-13 02:04:00,64.0,10.4,30.36,SE,135,3.0,8.0,12,0.00,,,0.00,meteohub,2013-07-13 06:04:00,
2013-07-13 02:08:00,64.0,12.2,30.36,SE,135,2.0,8.0,13,0.00,,,0.00,meteohub,2013-07-13 06:08:00,
2013-07-13 02:09:00,64.0,13.8,30.35,East,90,2.0,8.0,14,0.00,,,0.00,meteohub,2013-07-13 06:09:00,
2013-07-13 02:13:00,64.0,13.8,30.36,East,90,2.0,4.0,14,0.00,,,0.00,meteohub,2013-07-13 06:13:00,
2013-07-13 02:14:00,64.0,13.8,30.35,East,90,2.0,4.0,14,0.00,,,0.00,meteohub,2013-07-13 06:14:00,
2013-07-13 02:15:00,64.0,13.8,30.35,SE,135,2.0,4.0,14,0.00,,,0.00,meteohub,2013-07-13 06:15:00,
2013-07-13 02:16:00,63.9,13.6,30.35,SE,135,4.0,4.0,14,0.00,,,0.00,meteohub,2013-07-13 06:16:00,
2013-07-13 02:19:00,64.0,13.8,30.35,NE,45,4.0,4.0,14,0.00,,,0.00,meteohub,2013-07-13 06:19:00,
2013-07-13 02:21:00,63.9,15.3,30.35,East,90,2.0,5.0,15,0.00,,,0.00,meteohub,2013-07-13 06:21:00,
2013-07-13 02:22:00,63.9,15.3,30.35,East,90,4.0,5.0,15,0.00,,,0.00,meteohub,2013-07-13 06:22:00,
2013-07-13 02:25:00,63.9,15.3,30.35,South,180,2.0,5.0,15,0.00,,,0.00,meteohub,2013-07-13 06:25:00,
2013-07-13 02:26:00,63.9,16.7,30.35,South,180,2.0,5.0,16,0.00,,,0.00,meteohub,2013-07-13 06:26:00,
2013-07-13 02:27:00,63.9,16.7,30.35,SE,135,2.0,5.0,16,0.00,,,0.00,meteohub,2013-07-13 06:27:00,
2013-07-13 02:28:00,63.9,16.7,30.35,SE,135,3.0,5.0,16,0.00,,,0.00,meteohub,2013-07-13 06:28:00,
2013-07-13 02:31:00,63.9,16.7,30.35,SE,135,2.0,5.0,16,0.00,,,0.00,meteohub,2013-07-13 06:31:00,
2013-07-13 02:33:00,63.9,18.1,30.35,South,180,4.0,5.0,17,0.00,,,0.00,meteohub,2013-07-13 06:33:00,
2013-07-13 02:34:00,63.9,18.1,30.35,SE,135,2.0,5.0,17,0.00,,,0.00,meteohub,2013-07-13 06:34:00,
2013-07-13 02:37:00,63.9,18.1,30.35,West,270,2.0,6.0,17,0.00,,,0.00,meteohub,2013-07-13 06:37:00,
2013-07-13 02:38:00,63.9,18.1,30.35,SE,135,4.0,6.0,17,0.00,,,0.00,meteohub,2013-07-13 06:38:00,
2013-07-13 02:39:00,63.9,18.1,30.35,SE,135,2.0,6.0,17,0.00,,,0.00,meteohub,2013-07-13 06:39:00,
2013-07-13 02:40:00,63.9,18.1,30.35,SE,135,4.0,6.0,17,0.00,,,0.00,meteohub,2013-07-13 06:40:00,
2013-07-13 02:44:00,63.9,18.1,30.35,SE,135,3.0,6.0,17,0.00,,,0.00,meteohub,2013-07-13 06:44:00,
2013-07-13 02:45:00,63.9,18.1,30.36,East,90,4.0,6.0,17,0.00,,,0.00,meteohub,2013-07-13 06:45:00,
2013-07-13 02:46:00,63.9,19.6,30.35,South,180,3.0,6.0,18,0.00,,,0.00,meteohub,2013-07-13 06:46:00,
2013-07-13 02:49:00,63.9,19.6,30.35,NE,45,3.0,6.0,18,0.00,,,0.00,meteohub,2013-07-13 06:49:00,
2013-07-13 02:50:00,63.9,19.6,30.35,East,90,2.0,6.0,18,0.00,,,0.00,meteohub,2013-07-13 06:50:00,
2013-07-13 02:51:00,63.9,19.6,30.35,SE,135,2.0,6.0,18,0.00,,,0.00,meteohub,2013-07-13 06:51:00,
2013-07-13 02:55:00,63.9,19.6,30.35,East,90,2.0,4.0,18,0.00,,,0.00,meteohub,2013-07-13 06:55:00,
2013-07-13 02:56:00,63.7,19.4,30.35,East,90,3.0,4.0,18,0.00,,,0.00,meteohub,2013-07-13 06:56:00,
2013-07-13 02:57:00,63.9,19.6,30.35,SE,135,4.0,4.0,18,0.00,,,0.00,meteohub,2013-07-13 06:57:00,
2013-07-13 03:01:00,63.7,20.7,30.35,NE,45,3.0,4.0,19,0.00,,,0.00,meteohub,2013-07-13 07:01:00,
2013-07-13 03:02:00,63.7,20.7,30.35,South,180,2.0,4.0,19,0.00,,,0.00,meteohub,2013-07-13 07:02:00,
2013-07-13 03:03:00,63.7,20.7,30.35,South,180,2.0,4.0,19,0.00,,,0.00,meteohub,2013-07-13 07:03:00,
2013-07-13 03:06:00,63.7,21.9,30.35,East,90,2.0,4.0,20,0.00,,,0.00,meteohub,2013-07-13 07:06:00,
2013-07-13 03:07:00,63.7,21.9,30.35,NE,45,1.0,4.0,20,0.00,,,0.00,meteohub,2013-07-13 07:07:00,
2013-07-13 03:08:00,63.7,20.7,30.35,NE,45,0.0,4.0,19,0.00,,,0.00,meteohub,2013-07-13 07:08:00,
2013-07-13 03:10:00,63.5,20.5,30.35,South,180,1.0,4.0,19,0.00,,,0.00,meteohub,2013-07-13 07:10:00,
2013-07-13 03:11:00,63.5,20.5,30.35,NW,315,0.0,4.0,19,0.00,,,0.00,meteohub,2013-07-13 07:11:00,
2013-07-13 03:12:00,63.5,20.5,30.35,NE,45,1.0,4.0,19,0.00,,,0.00,meteohub,2013-07-13 07:12:00,
2013-07-13 03:13:00,63.5,21.7,30.35,SE,135,3.0,4.0,20,0.00,,,0.00,meteohub,2013-07-13 07:13:00,
2013-07-13 03:15:00,63.5,21.7,30.35,South,180,0.0,4.0,20,0.00,,,0.00,meteohub,2013-07-13 07:15:00,
2013-07-13 03:16:00,63.5,21.7,30.35,South,180,0.0,4.0,20,0.00,,,0.00,meteohub,2013-07-13 07:16:00,
2013-07-13 03:18:00,63.7,21.9,30.35,NW,315,3.0,4.0,20,0.00,,,0.00,meteohub,2013-07-13 07:18:00,
2013-07-13 03:19:00,63.5,21.7,30.34,WSW,248,1.0,4.0,20,0.00,,,0.00,meteohub,2013-07-13 07:19:00,
2013-07-13 03:21:00,63.5,21.7,30.35,North,0,4.0,4.0,20,0.00,,,0.00,meteohub,2013-07-13 07:21:00,
2013-07-13 03:22:00,63.5,21.7,30.34,East,90,2.0,4.0,20,0.00,,,0.00,meteohub,2013-07-13 07:22:00,
2013-07-13 03:23:00,63.5,21.7,30.35,South,180,2.0,4.0,20,0.00,,,0.00,meteohub,2013-07-13 07:23:00,
2013-07-13 03:24:00,63.5,21.7,30.35,East,90,2.0,4.0,20,0.00,,,0.00,meteohub,2013-07-13 07:24:00,
2013-07-13 03:25:00,63.5,21.7,30.34,NE,45,2.0,4.0,20,0.00,,,0.00,meteohub,2013-07-13 07:25:00,
2013-07-13 03:26:00,63.5,21.7,30.34,East,90,2.0,4.0,20,0.00,,,0.00,meteohub,2013-07-13 07:26:00,
2013-07-13 03:29:00,63.5,22.8,30.34,East,90,3.0,4.0,21,0.00,,,0.00,meteohub,2013-07-13 07:29:00,
2013-07-13 03:30:00,63.5,22.8,30.35,NE,45,2.0,4.0,21,0.00,,,0.00,meteohub,2013-07-13 07:30:00,
2013-07-13 03:32:00,63.5,22.8,30.35,East,90,3.0,4.0,21,0.00,,,0.00,meteohub,2013-07-13 07:32:00,
2013-07-13 03:34:00,63.5,22.8,30.35,NE,45,0.0,4.0,21,0.00,,,0.00,meteohub,2013-07-13 07:34:00,
2013-07-13 03:35:00,63.5,22.8,30.35,East,90,2.0,4.0,21,0.00,,,0.00,meteohub,2013-07-13 07:35:00,
2013-07-13 03:36:00,63.5,22.8,30.35,East,90,2.0,4.0,21,0.00,,,0.00,meteohub,2013-07-13 07:36:00,
2013-07-13 03:38:00,63.5,22.8,30.35,NE,45,3.0,4.0,21,0.00,,,0.00,meteohub,2013-07-13 07:38:00,
2013-07-13 03:39:00,63.5,22.8,30.35,East,90,2.0,4.0,21,0.00,,,0.00,meteohub,2013-07-13 07:39:00,
2013-07-13 03:40:00,63.5,22.8,30.34,East,90,2.0,3.0,21,0.00,,,0.00,meteohub,2013-07-13 07:40:00,
2013-07-13 03:42:00,63.5,23.9,30.35,SE,135,2.0,3.0,22,0.00,,,0.00,meteohub,2013-07-13 07:42:00,
2013-07-13 03:43:00,63.5,23.9,30.35,SE,135,1.0,3.0,22,0.00,,,0.00,meteohub,2013-07-13 07:43:00,
2013-07-13 03:45:00,63.5,23.9,30.35,East,90,3.0,3.0,22,0.00,,,0.00,meteohub,2013-07-13 07:45:00,
2013-07-13 03:46:00,63.5,23.9,30.35,East,90,3.0,4.0,22,0.00,,,0.00,meteohub,2013-07-13 07:46:00,
2013-07-13 03:48:00,63.5,23.9,30.35,SE,135,2.0,4.0,22,0.00,,,0.00,meteohub,2013-07-13 07:48:00,
2013-07-13 03:49:00,63.5,23.9,30.35,East,90,2.0,4.0,22,0.00,,,0.00,meteohub,2013-07-13 07:49:00,
2013-07-13 03:50:00,63.3,23.9,30.35,South,180,2.0,4.0,22,0.00,,,0.00,meteohub,2013-07-13 07:50:00,
2013-07-13 03:51:00,63.3,24.8,30.35,East,90,2.0,4.0,23,0.00,,,0.00,meteohub,2013-07-13 07:51:00,
2013-07-13 03:53:00,63.3,24.8,30.35,East,90,4.0,4.0,23,0.00,,,0.00,meteohub,2013-07-13 07:53:00,
2013-07-13 03:54:00,63.3,24.8,30.35,East,90,4.0,4.0,23,0.00,,,0.00,meteohub,2013-07-13 07:54:00,
2013-07-13 03:55:00,63.5,25.0,30.35,East,90,4.0,4.0,23,0.00,,,0.00,meteohub,2013-07-13 07:55:00,
2013-07-13 03:57:00,63.3,24.8,30.35,NE,45,2.0,4.0,23,0.00,,,0.00,meteohub,2013-07-13 07:57:00,
2013-07-13 03:59:00,63.3,24.8,30.35,SE,135,2.0,4.0,23,0.00,,,0.00,meteohub,2013-07-13 07:59:00,
2013-07-13 04:01:00,63.3,24.8,30.35,SE,135,2.0,4.0,23,0.00,,,0.00,meteohub,2013-07-13 08:01:00,
2013-07-13 04:02:00,63.3,24.8,30.35,SE,135,2.0,4.0,23,0.00,,,0.00,meteohub,2013-07-13 08:02:00,
2013-07-13 04:04:00,63.3,25.9,30.35,SE,135,4.0,4.0,24,0.00,,,0.00,meteohub,2013-07-13 08:04:00,
2013-07-13 04:05:00,63.3,25.9,30.35,SE,135,3.0,4.0,24,0.00,,,0.00,meteohub,2013-07-13 08:05:00,
2013-07-13 04:07:00,63.3,25.9,30.35,NW,315,4.0,4.0,24,0.00,,,0.00,meteohub,2013-07-13 08:07:00,
2013-07-13 04:09:00,63.3,25.9,30.35,East,90,3.0,4.0,24,0.00,,,0.00,meteohub,2013-07-13 08:09:00,
2013-07-13 04:12:00,63.3,27.0,30.35,NE,45,4.0,5.0,25,0.00,,,0.00,meteohub,2013-07-13 08:12:00,
2013-07-13 04:14:00,63.3,27.0,30.35,East,90,3.0,5.0,25,0.00,,,0.00,meteohub,2013-07-13 08:14:00,
2013-07-13 04:15:00,63.3,27.0,30.35,East,90,3.0,5.0,25,0.00,,,0.00,meteohub,2013-07-13 08:15:00,
2013-07-13 04:18:00,63.3,27.0,30.35,East,90,2.0,5.0,25,0.00,,,0.00,meteohub,2013-07-13 08:18:00,
2013-07-13 04:19:00,63.3,27.0,30.35,SE,135,2.0,5.0,25,0.00,,,0.00,meteohub,2013-07-13 08:19:00,
2013-07-13 04:20:00,63.3,27.0,30.35,SE,135,2.0,5.0,25,0.00,,,0.00,meteohub,2013-07-13 08:20:00,
2013-07-13 04:21:00,63.3,27.0,30.35,SE,135,6.0,6.0,25,0.00,,,0.00,meteohub,2013-07-13 08:21:00,
2013-07-13 04:25:00,63.1,27.7,30.35,West,270,4.0,5.0,26,0.00,,,0.00,meteohub,2013-07-13 08:25:00,
2013-07-13 04:26:00,63.1,27.7,30.35,SE,135,4.0,6.0,26,0.00,,,0.00,meteohub,2013-07-13 08:26:00,
2013-07-13 04:27:00,63.1,27.7,30.35,East,90,8.0,8.0,26,0.00,,,0.00,meteohub,2013-07-13 08:27:00,
2013-07-13 04:30:00,63.1,27.7,30.35,SE,135,2.0,6.0,26,0.00,,,0.00,meteohub,2013-07-13 08:30:00,
2013-07-13 04:32:00,63.0,28.4,30.35,NE,45,4.0,8.0,27,0.00,,,0.00,meteohub,2013-07-13 08:32:00,
2013-07-13 04:34:00,63.0,28.4,30.35,East,90,4.0,8.0,27,0.00,,,0.00,meteohub,2013-07-13 08:34:00,
2013-07-13 04:35:00,63.0,28.4,30.35,East,90,6.0,8.0,27,0.00,,,0.00,meteohub,2013-07-13 08:35:00,
2013-07-13 04:37:00,63.0,28.4,30.35,South,180,3.0,8.0,27,0.00,,,0.00,meteohub,2013-07-13 08:37:00,
2013-07-13 04:39:00,63.0,29.3,30.35,East,90,4.0,8.0,28,0.00,,,0.00,meteohub,2013-07-13 08:39:00,
2013-07-13 04:42:00,63.0,29.3,30.35,South,180,3.0,8.0,28,0.00,,,0.00,meteohub,2013-07-13 08:42:00,
2013-07-13 04:43:00,63.0,29.3,30.35,East,90,3.0,8.0,28,0.00,,,0.00,meteohub,2013-07-13 08:43:00,
2013-07-13 04:45:00,63.0,29.3,30.35,South,180,3.0,8.0,28,0.00,,,0.00,meteohub,2013-07-13 08:45:00,
2013-07-13 04:48:00,63.0,29.3,30.35,East,90,2.0,8.0,28,0.00,,,0.00,meteohub,2013-07-13 08:48:00,
2013-07-13 04:50:00,63.0,29.3,30.36,East,90,2.0,8.0,28,0.00,,,0.00,meteohub,2013-07-13 08:50:00,
2013-07-13 04:51:00,63.0,29.3,30.36,East,90,2.0,8.0,28,0.00,,,0.00,meteohub,2013-07-13 08:51:00,
2013-07-13 04:53:00,63.0,30.2,30.35,East,90,3.0,8.0,29,0.00,,,0.00,meteohub,2013-07-13 08:53:00,
2013-07-13 04:54:00,63.0,30.2,30.35,East,90,6.0,8.0,29,0.00,,,0.00,meteohub,2013-07-13 08:54:00,
2013-07-13 04:56:00,63.0,30.2,30.35,East,90,6.0,8.0,29,0.00,,,0.00,meteohub,2013-07-13 08:56:00,
2013-07-13 04:57:00,63.0,30.2,30.35,East,90,6.0,8.0,29,0.00,,,0.00,meteohub,2013-07-13 08:57:00,
2013-07-13 04:58:00,63.0,30.2,30.35,East,90,6.0,8.0,29,0.00,,,0.00,meteohub,2013-07-13 08:58:00,
2013-07-13 04:59:00,63.0,30.2,30.35,East,90,6.0,8.0,29,0.00,,,0.00,meteohub,2013-07-13 08:59:00,
2013-07-13 05:01:00,63.0,30.2,30.35,East,90,6.0,6.0,29,0.00,,,0.00,meteohub,2013-07-13 09:01:00,
2013-07-13 05:02:00,63.0,30.2,30.35,East,90,6.0,6.0,29,0.00,,,0.00,meteohub,2013-07-13 09:02:00,
2013-07-13 05:04:00,63.0,30.2,30.35,East,90,6.0,6.0,29,0.00,,,0.00,meteohub,2013-07-13 09:04:00,
2013-07-13 05:05:00,63.0,30.2,30.35,East,90,6.0,6.0,29,0.00,,,0.00,meteohub,2013-07-13 09:05:00,
2013-07-13 05:06:00,63.0,30.2,30.35,East,90,6.0,6.0,29,0.00,,,0.00,meteohub,2013-07-13 09:06:00,
2013-07-13 05:07:00,62.6,29.8,30.35,East,90,3.0,6.0,29,0.00,,,0.00,meteohub,2013-07-13 09:07:00,
2013-07-13 05:08:00,62.6,29.8,30.35,East,90,2.0,6.0,29,0.00,,,0.00,meteohub,2013-07-13 09:08:00,
2013-07-13 05:09:00,62.6,29.8,30.35,SE,135,3.0,6.0,29,0.00,,,0.00,meteohub,2013-07-13 09:09:00,
2013-07-13 05:10:00,62.6,29.8,30.35,SE,135,3.0,6.0,29,0.00,,,0.00,meteohub,2013-07-13 09:10:00,
2013-07-13 05:12:00,62.6,29.8,30.35,SE,135,2.0,6.0,29,0.00,,,0.00,meteohub,2013-07-13 09:12:00,
2013-07-13 05:13:00,62.6,30.7,30.35,SE,135,5.0,6.0,30,0.00,,,0.00,meteohub,2013-07-13 09:13:00,
2013-07-13 05:14:00,62.6,30.7,30.35,SE,135,5.0,6.0,30,0.00,,,0.00,meteohub,2013-07-13 09:14:00,
2013-07-13 05:16:00,62.6,30.7,30.35,East,90,2.0,6.0,30,0.00,,,0.00,meteohub,2013-07-13 09:16:00,
2013-07-13 05:17:00,62.6,30.7,30.35,East,90,2.0,6.0,30,0.00,,,0.00,meteohub,2013-07-13 09:17:00,
2013-07-13 05:19:00,62.6,30.7,30.35,SE,135,2.0,6.0,30,0.00,,,0.00,meteohub,2013-07-13 09:19:00,
2013-07-13 05:20:00,62.6,30.7,30.35,East,90,2.0,6.0,30,0.00,,,0.00,meteohub,2013-07-13 09:20:00,
2013-07-13 05:21:00,62.6,30.7,30.35,East,90,3.0,6.0,30,0.00,,,0.00,meteohub,2013-07-13 09:21:00,
2013-07-13 05:22:00,62.6,30.7,30.35,East,90,2.0,6.0,30,0.00,,,0.00,meteohub,2013-07-13 09:22:00,
2013-07-13 05:23:00,62.4,30.6,30.35,SE,135,2.0,6.0,30,0.00,,,0.00,meteohub,2013-07-13 09:23:00,
2013-07-13 05:25:00,62.4,30.6,30.35,SE,135,3.0,6.0,30,0.00,,,0.00,meteohub,2013-07-13 09:25:00,
2013-07-13 05:27:00,62.4,30.6,30.35,SE,135,2.0,5.0,30,0.00,,,0.00,meteohub,2013-07-13 09:27:00,
2013-07-13 05:28:00,62.4,30.6,30.35,South,180,4.0,5.0,30,0.00,,,0.00,meteohub,2013-07-13 09:28:00,
2013-07-13 05:30:00,62.4,31.5,30.35,SE,135,3.0,5.0,31,0.00,,,0.00,meteohub,2013-07-13 09:30:00,
2013-07-13 05:31:00,62.4,31.5,30.35,SE,135,3.0,4.0,31,0.00,,,0.00,meteohub,2013-07-13 09:31:00,
2013-07-13 05:33:00,62.4,31.5,30.35,East,90,2.0,4.0,31,0.00,,,0.00,meteohub,2013-07-13 09:33:00,
2013-07-13 05:36:00,62.4,31.5,30.35,SE,135,2.0,4.0,31,0.00,,,0.00,meteohub,2013-07-13 09:36:00,
2013-07-13 05:37:00,62.2,31.3,30.35,SE,135,2.0,4.0,31,0.00,,,0.00,meteohub,2013-07-13 09:37:00,
2013-07-13 05:39:00,62.2,31.3,30.35,SE,135,4.0,4.0,31,0.00,,,0.00,meteohub,2013-07-13 09:39:00,
2013-07-13 05:40:00,62.2,31.3,30.35,SE,135,2.0,4.0,31,0.00,,,0.00,meteohub,2013-07-13 09:40:00,
2013-07-13 05:41:00,62.2,31.3,30.35,East,90,7.0,7.0,31,0.00,,,0.00,meteohub,2013-07-13 09:41:00,
2013-07-13 05:42:00,62.2,31.3,30.35,NW,315,4.0,4.0,31,0.00,,,0.00,meteohub,2013-07-13 09:42:00,
2013-07-13 05:43:00,62.2,31.3,30.35,South,180,2.0,4.0,31,0.00,,,0.00,meteohub,2013-07-13 09:43:00,
2013-07-13 05:46:00,62.2,31.3,30.35,South,180,4.0,7.0,31,0.00,,,0.00,meteohub,2013-07-13 09:46:00,
2013-07-13 05:47:00,62.1,31.1,30.35,East,90,2.0,7.0,31,0.00,,,0.00,meteohub,2013-07-13 09:47:00,
2013-07-13 05:48:00,62.1,31.1,30.35,SE,135,2.0,7.0,31,0.00,,,0.00,meteohub,2013-07-13 09:48:00,
2013-07-13 05:51:00,62.1,31.1,30.35,SE,135,4.0,7.0,31,0.00,,,0.00,meteohub,2013-07-13 09:51:00,
2013-07-13 05:52:00,62.1,31.1,30.35,East,90,4.0,7.0,31,0.00,,,0.00,meteohub,2013-07-13 09:52:00,
2013-07-13 05:53:00,62.1,31.1,30.35,East,90,2.0,7.0,31,0.00,,,0.00,meteohub,2013-07-13 09:53:00,
2013-07-13 05:54:00,62.1,31.1,30.35,SE,135,3.0,7.0,31,0.00,,,0.00,meteohub,2013-07-13 09:54:00,
2013-07-13 05:57:00,61.9,30.9,30.36,WSW,248,4.0,7.0,31,0.00,,,0.00,meteohub,2013-07-13 09:57:00,
2013-07-13 05:58:00,61.9,30.9,30.36,East,90,3.0,7.0,31,0.00,,,0.00,meteohub,2013-07-13 09:58:00,
2013-07-13 06:00:00,61.9,30.9,30.36,SE,135,5.0,7.0,31,0.00,,,0.00,meteohub,2013-07-13 10:00:00,
2013-07-13 06:03:00,61.9,31.6,30.36,SE,135,6.0,6.0,32,0.00,,,0.00,meteohub,2013-07-13 10:03:00,
2013-07-13 06:04:00,61.9,31.6,30.36,SE,135,3.0,4.0,32,0.00,,,0.00,meteohub,2013-07-13 10:04:00,
2013-07-13 06:05:00,61.9,31.6,30.36,SE,135,3.0,6.0,32,0.00,,,0.00,meteohub,2013-07-13 10:05:00,
2013-07-13 06:06:00,61.9,31.6,30.36,East,90,3.0,6.0,32,0.00,,,0.00,meteohub,2013-07-13 10:06:00,
2013-07-13 06:09:00,61.9,31.6,30.36,East,90,2.0,6.0,32,0.00,,,0.00,meteohub,2013-07-13 10:09:00,
2013-07-13 06:10:00,61.9,31.6,30.36,NE,45,5.0,6.0,32,0.00,,,0.00,meteohub,2013-07-13 10:10:00,
2013-07-13 06:11:00,61.9,31.6,30.36,SE,135,4.0,6.0,32,0.00,,,0.00,meteohub,2013-07-13 10:11:00,
2013-07-13 06:12:00,61.9,31.6,30.36,ESE,113,2.0,6.0,32,0.00,,,0.00,meteohub,2013-07-13 10:12:00,
2013-07-13 06:14:00,61.9,31.6,30.36,SE,135,4.0,6.0,32,0.00,,,0.00,meteohub,2013-07-13 10:14:00,
2013-07-13 06:15:00,61.9,31.6,30.36,South,180,3.0,6.0,32,0.00,,,0.00,meteohub,2013-07-13 10:15:00,
2013-07-13 06:16:00,61.9,31.6,30.36,South,180,3.0,6.0,32,0.00,,,0.00,meteohub,2013-07-13 10:16:00,
2013-07-13 06:17:00,61.9,31.6,30.36,South,180,3.0,6.0,32,0.00,,,0.00,meteohub,2013-07-13 10:17:00,
2013-07-13 06:20:00,61.9,31.6,30.36,South,180,6.0,6.0,32,0.00,,,0.00,meteohub,2013-07-13 10:20:00,
2013-07-13 06:21:00,61.9,31.6,30.36,SE,135,3.0,5.0,32,0.00,,,0.00,meteohub,2013-07-13 10:21:00,
2013-07-13 06:23:00,61.9,31.6,30.36,NE,45,4.0,5.0,32,0.00,,,0.00,meteohub,2013-07-13 10:23:00,
2013-07-13 06:24:00,61.9,31.6,30.36,North,0,5.0,5.0,32,0.00,,,0.00,meteohub,2013-07-13 10:24:00,
2013-07-13 06:25:00,61.9,31.6,30.36,East,90,2.0,6.0,32,0.00,,,0.00,meteohub,2013-07-13 10:25:00,
2013-07-13 06:26:00,61.9,31.6,30.37,NE,45,4.0,6.0,32,0.00,,,0.00,meteohub,2013-07-13 10:26:00,
2013-07-13 06:28:00,62.1,31.8,30.36,NE,45,4.0,6.0,32,0.00,,,0.00,meteohub,2013-07-13 10:28:00,
2013-07-13 06:30:00,62.1,31.8,30.36,WSW,248,2.0,6.0,32,0.00,,,0.00,meteohub,2013-07-13 10:30:00,
2013-07-13 06:31:00,62.1,32.5,30.36,SE,135,2.0,6.0,33,0.00,,,0.00,meteohub,2013-07-13 10:31:00,
2013-07-13 06:32:00,62.1,32.5,30.36,SE,135,2.0,6.0,33,0.00,,,0.00,meteohub,2013-07-13 10:32:00,
2013-07-13 06:33:00,62.1,32.5,30.36,East,90,3.0,6.0,33,0.00,,,0.00,meteohub,2013-07-13 10:33:00,
2013-07-13 06:35:00,62.1,32.5,30.36,SE,135,2.0,6.0,33,0.00,,,0.00,meteohub,2013-07-13 10:35:00,
2013-07-13 06:36:00,62.1,32.5,30.36,NE,45,3.0,6.0,33,0.00,,,0.00,meteohub,2013-07-13 10:36:00,
2013-07-13 06:37:00,62.1,32.5,30.36,NE,45,3.0,6.0,33,0.00,,,0.00,meteohub,2013-07-13 10:37:00,
2013-07-13 06:38:00,62.1,32.5,30.36,South,180,3.0,6.0,33,0.00,,,0.00,meteohub,2013-07-13 10:38:00,
2013-07-13 06:40:00,62.2,32.7,30.37,SE,135,5.0,6.0,33,0.00,,,0.00,meteohub,2013-07-13 10:40:00,
2013-07-13 06:42:00,62.2,32.7,30.36,WSW,248,2.0,6.0,33,0.00,,,0.00,meteohub,2013-07-13 10:42:00,
2013-07-13 06:44:00,62.2,32.7,30.36,East,90,2.0,6.0,33,0.00,,,0.00,meteohub,2013-07-13 10:44:00,
2013-07-13 06:45:00,62.2,32.7,30.36,East,90,4.0,6.0,33,0.00,,,0.00,meteohub,2013-07-13 10:45:00,
2013-07-13 06:46:00,62.2,32.7,30.36,East,90,4.0,6.0,33,0.00,,,0.00,meteohub,2013-07-13 10:46:00,
2013-07-13 06:49:00,62.4,32.9,30.36,West,270,2.0,6.0,33,0.00,,,0.00,meteohub,2013-07-13 10:49:00,
2013-07-13 06:50:00,62.4,32.9,30.36,West,270,2.0,6.0,33,0.00,,,0.00,meteohub,2013-07-13 10:50:00,
2013-07-13 06:52:00,62.4,32.9,30.36,East,90,2.0,6.0,33,0.00,,,0.00,meteohub,2013-07-13 10:52:00,
2013-07-13 06:53:00,62.6,33.1,30.36,North,0,3.0,6.0,33,0.00,,,0.00,meteohub,2013-07-13 10:53:00,
2013-07-13 06:54:00,62.6,33.1,30.37,SE,135,2.0,6.0,33,0.00,,,0.00,meteohub,2013-07-13 10:54:00,
2013-07-13 06:55:00,62.6,33.1,30.37,SE,135,2.0,6.0,33,0.00,,,0.00,meteohub,2013-07-13 10:55:00,
2013-07-13 06:56:00,62.6,33.1,30.37,East,90,2.0,8.0,33,0.00,,,0.00,meteohub,2013-07-13 10:56:00,
2013-07-13 06:58:00,62.8,33.3,30.37,SE,135,4.0,8.0,33,0.00,,,0.00,meteohub,2013-07-13 10:58:00,
2013-07-13 07:00:00,63.0,33.4,30.37,South,180,2.0,8.0,33,0.00,,,0.00,meteohub,2013-07-13 11:00:00,
2013-07-13 07:01:00,63.0,33.4,30.37,South,180,2.0,8.0,33,0.00,,,0.00,meteohub,2013-07-13 11:01:00,
2013-07-13 07:04:00,63.3,33.8,30.37,WSW,248,3.0,8.0,33,0.00,,,0.00,meteohub,2013-07-13 11:04:00,
2013-07-13 07:05:00,63.5,33.8,30.37,South,180,2.0,8.0,33,0.00,,,0.00,meteohub,2013-07-13 11:05:00,
2013-07-13 07:06:00,63.5,33.8,30.37,South,180,2.0,8.0,33,0.00,,,0.00,meteohub,2013-07-13 11:06:00,
2013-07-13 07:07:00,63.9,34.2,30.37,South,180,3.0,8.0,33,0.00,,,0.00,meteohub,2013-07-13 11:07:00,
2013-07-13 07:08:00,64.2,34.5,30.38,SE,135,2.0,8.0,33,0.00,,,0.00,meteohub,2013-07-13 11:08:00,
2013-07-13 07:11:00,64.8,35.1,30.37,South,180,2.0,4.0,33,0.00,,,0.00,meteohub,2013-07-13 11:11:00,
2013-07-13 07:12:00,65.1,35.2,30.37,NE,45,5.0,5.0,33,0.00,,,0.00,meteohub,2013-07-13 11:12:00,
2013-07-13 07:16:00,65.8,35.2,30.37,WNW,293,2.0,5.0,32,0.00,,,0.00,meteohub,2013-07-13 11:16:00,
2013-07-13 07:17:00,66.4,34.9,30.37,East,90,4.0,5.0,31,0.00,,,0.00,meteohub,2013-07-13 11:17:00,
2013-07-13 07:18:00,66.6,34.2,30.37,SE,135,4.0,5.0,30,0.00,,,0.00,meteohub,2013-07-13 11:18:00,
2013-07-13 07:22:00,67.1,30.0,30.37,SE,135,2.0,5.0,25,0.00,,,0.00,meteohub,2013-07-13 11:22:00,
2013-07-13 07:23:00,67.5,29.5,30.37,SE,135,3.0,5.0,24,0.00,,,0.00,meteohub,2013-07-13 11:23:00,
2013-07-13 07:24:00,67.6,28.6,30.37,SE,135,2.0,5.0,23,0.00,,,0.00,meteohub,2013-07-13 11:24:00,
2013-07-13 07:26:00,68.0,25.3,30.38,South,180,4.0,5.0,20,0.00,,,0.00,meteohub,2013-07-13 11:26:00,
2013-07-13 07:27:00,68.0,24.3,30.37,East,90,4.0,5.0,19,0.00,,,0.00,meteohub,2013-07-13 11:27:00,
2013-07-13 07:29:00,68.0,20.1,30.37,NE,45,2.0,5.0,16,0.00,,,0.00,meteohub,2013-07-13 11:29:00,
2013-07-13 07:31:00,68.2,18.7,30.37,NE,45,3.0,4.0,15,0.00,,,0.00,meteohub,2013-07-13 11:31:00,
2013-07-13 07:32:00,68.2,17.2,30.38,NE,45,2.0,4.0,14,0.00,,,0.00,meteohub,2013-07-13 11:32:00,
2013-07-13 07:33:00,68.5,15.8,30.37,North,0,1.0,4.0,13,0.00,,,0.00,meteohub,2013-07-13 11:33:00,
2013-07-13 07:34:00,68.5,15.8,30.37,North,0,1.0,4.0,13,0.00,,,0.00,meteohub,2013-07-13 11:34:00,
2013-07-13 07:37:00,68.7,68.7,30.38,East,90,4.0,4.0,0,0.00,,,0.00,meteohub,2013-07-13 11:37:00,
2013-07-13 07:39:00,68.7,68.7,30.38,South,180,5.0,5.0,0,0.00,,,0.00,meteohub,2013-07-13 11:39:00,
2013-07-13 07:41:00,68.7,68.7,30.38,SE,135,2.0,7.0,0,0.00,,,0.00,meteohub,2013-07-13 11:41:00,
2013-07-13 07:42:00,68.9,68.9,30.38,SE,135,2.0,7.0,0,0.00,,,0.00,meteohub,2013-07-13 11:42:00,
2013-07-13 07:43:00,68.9,68.9,30.38,SE,135,2.0,7.0,0,0.00,,,0.00,meteohub,2013-07-13 11:43:00,
2013-07-13 07:45:00,69.3,69.3,30.38,East,90,3.0,7.0,0,0.00,,,0.00,meteohub,2013-07-13 11:45:00,
2013-07-13 07:47:00,69.3,69.3,30.38,West,270,2.0,7.0,0,0.00,,,0.00,meteohub,2013-07-13 11:47:00,
2013-07-13 07:48:00,69.4,69.4,30.38,WSW,248,2.0,7.0,0,0.00,,,0.00,meteohub,2013-07-13 11:48:00,
2013-07-13 07:49:00,69.4,69.4,30.38,East,90,2.0,7.0,0,0.00,,,0.00,meteohub,2013-07-13 11:49:00,
2013-07-13 07:50:00,69.6,69.6,30.38,SE,135,4.0,7.0,0,0.00,,,0.00,meteohub,2013-07-13 11:50:00,
2013-07-13 07:52:00,69.6,69.6,30.38,SE,135,6.0,7.0,0,0.00,,,0.00,meteohub,2013-07-13 11:52:00,
2013-07-13 07:54:00,69.1,69.1,30.39,East,90,3.0,7.0,0,0.00,,,0.00,meteohub,2013-07-13 11:54:00,
2013-07-13 07:58:00,68.0,68.0,30.39,East,90,2.0,6.0,0,0.00,,,0.00,meteohub,2013-07-13 11:58:00,
2013-07-13 07:59:00,68.0,68.0,30.39,SE,135,3.0,6.0,0,0.00,,,0.00,meteohub,2013-07-13 11:59:00,
2013-07-13 08:00:00,68.0,68.0,30.39,South,180,2.0,7.0,0,0.00,,,0.00,meteohub,2013-07-13 12:00:00,
2013-07-13 08:03:00,68.5,68.5,30.40,NE,45,2.0,7.0,0,0.00,,,0.00,meteohub,2013-07-13 12:03:00,
2013-07-13 08:04:00,68.5,68.5,30.40,South,180,4.0,7.0,0,0.00,,,0.00,meteohub,2013-07-13 12:04:00,
2013-07-13 08:05:00,68.5,68.5,30.40,South,180,4.0,7.0,0,0.00,,,0.00,meteohub,2013-07-13 12:05:00,
2013-07-13 08:08:00,68.7,68.7,30.40,NE,45,4.0,7.0,0,0.00,,,0.00,meteohub,2013-07-13 12:08:00,
2013-07-13 08:09:00,68.7,68.7,30.40,NE,45,3.0,7.0,0,0.00,,,0.00,meteohub,2013-07-13 12:09:00,
2013-07-13 08:10:00,68.5,68.5,30.40,East,90,5.0,7.0,0,0.00,,,0.00,meteohub,2013-07-13 12:10:00,
2013-07-13 08:11:00,68.5,68.5,30.40,NE,45,5.0,6.0,0,0.00,,,0.00,meteohub,2013-07-13 12:11:00,
2013-07-13 08:13:00,68.0,68.0,30.40,SE,135,3.0,6.0,0,0.00,,,0.00,meteohub,2013-07-13 12:13:00,
2013-07-13 08:15:00,68.0,68.0,30.40,East,90,4.0,5.0,0,0.00,,,0.00,meteohub,2013-07-13 12:15:00,
2013-07-13 08:16:00,68.0,68.0,30.40,East,90,4.0,5.0,0,0.00,,,0.00,meteohub,2013-07-13 12:16:00,
2013-07-13 08:19:00,67.6,67.6,30.40,NE,45,4.0,5.0,0,0.00,,,0.00,meteohub,2013-07-13 12:19:00,
2013-07-13 08:20:00,67.6,67.6,30.40,West,270,4.0,5.0,0,0.00,,,0.00,meteohub,2013-07-13 12:20:00,
2013-07-13 08:21:00,67.5,67.5,30.40,NE,45,5.0,5.0,0,0.00,,,0.00,meteohub,2013-07-13 12:21:00,
2013-07-13 08:22:00,67.5,67.5,30.40,NE,45,5.0,5.0,0,0.00,,,0.00,meteohub,2013-07-13 12:22:00,
2013-07-13 08:24:00,67.3,67.3,30.40,NE,45,3.0,5.0,0,0.00,,,0.00,meteohub,2013-07-13 12:24:00,
2013-07-13 08:25:00,67.1,67.1,30.40,NW,315,7.0,8.0,0,0.00,,,0.00,meteohub,2013-07-13 12:25:00,
2013-07-13 08:27:00,67.1,67.1,30.40,East,90,4.0,8.0,0,0.00,,,0.00,meteohub,2013-07-13 12:27:00,
2013-07-13 08:29:00,66.9,66.9,30.41,NE,45,2.0,8.0,0,0.00,,,0.00,meteohub,2013-07-13 12:29:00,
2013-07-13 08:30:00,67.1,67.1,30.41,NE,45,2.0,8.0,0,0.00,,,0.00,meteohub,2013-07-13 12:30:00,
2013-07-13 08:32:00,67.1,67.1,30.41,WNW,293,3.0,8.0,0,0.00,,,0.00,meteohub,2013-07-13 12:32:00,
2013-07-13 08:33:00,67.1,67.1,30.41,NW,315,2.0,8.0,0,0.00,,,0.00,meteohub,2013-07-13 12:33:00,
2013-07-13 08:34:00,67.1,67.1,30.40,SE,135,2.0,8.0,0,0.00,,,0.00,meteohub,2013-07-13 12:34:00,
2013-07-13 08:36:00,67.1,67.1,30.41,East,90,0.0,8.0,0,0.00,,,0.00,meteohub,2013-07-13 12:36:00,
2013-07-13 08:38:00,67.5,67.5,30.41,NE,45,0.0,8.0,0,0.00,,,0.00,meteohub,2013-07-13 12:38:00,
2013-07-13 08:40:00,67.6,67.6,30.41,North,0,2.0,7.0,0,0.00,,,0.00,meteohub,2013-07-13 12:40:00,
2013-07-13 08:41:00,67.6,67.6,30.41,North,0,2.0,7.0,0,0.00,,,0.00,meteohub,2013-07-13 12:41:00,
2013-07-13 08:44:00,67.8,67.8,30.41,East,90,4.0,7.0,0,0.00,,,0.00,meteohub,2013-07-13 12:44:00,
2013-07-13 08:45:00,67.8,67.8,30.41,NE,45,2.0,4.0,0,0.00,,,0.00,meteohub,2013-07-13 12:45:00,
2013-07-13 08:46:00,67.8,67.8,30.41,East,90,0.0,4.0,0,0.00,,,0.00,meteohub,2013-07-13 12:46:00,
2013-07-13 08:50:00,68.0,68.0,30.41,SE,135,2.0,4.0,0,0.00,,,0.00,meteohub,2013-07-13 12:50:00,
2013-07-13 08:51:00,68.0,68.0,30.41,South,180,2.0,4.0,0,0.00,,,0.00,meteohub,2013-07-13 12:51:00,
2013-07-13 08:55:00,67.6,67.6,30.41,East,90,4.0,4.0,0,0.00,,,0.00,meteohub,2013-07-13 12:55:00,
2013-07-13 08:56:00,67.6,67.6,30.41,NW,315,3.0,4.0,0,0.00,,,0.00,meteohub,2013-07-13 12:56:00,
2013-07-13 08:57:00,67.5,67.5,30.41,East,90,2.0,4.0,0,0.00,,,0.00,meteohub,2013-07-13 12:57:00,
2013-07-13 09:01:00,67.5,67.5,30.42,North,0,2.0,4.0,0,0.00,,,0.00,meteohub,2013-07-13 13:01:00,
2013-07-13 09:02:00,67.5,67.5,30.42,East,90,5.0,5.0,0,0.00,,,0.00,meteohub,2013-07-13 13:02:00,
2013-07-13 09:07:00,67.1,67.1,30.41,East,90,4.0,5.0,0,0.00,,,0.00,meteohub,2013-07-13 13:07:00,
2013-07-13 09:08:00,67.1,67.1,30.41,SE,135,4.0,5.0,0,0.00,,,0.00,meteohub,2013-07-13 13:08:00,
2013-07-13 09:12:00,67.5,9.0,30.41,NW,315,2.0,5.0,10,0.00,,,0.00,meteohub,2013-07-13 13:12:00,
2013-07-13 09:13:00,67.5,11.1,30.41,North,0,2.0,5.0,11,0.00,,,0.00,meteohub,2013-07-13 13:13:00,
2013-07-13 09:14:00,67.8,11.3,30.41,NE,45,2.0,5.0,11,0.00,,,0.00,meteohub,2013-07-13 13:14:00,
2013-07-13 09:15:00,67.8,11.3,30.42,NE,45,2.0,5.0,11,0.00,,,0.00,meteohub,2013-07-13 13:15:00,
2013-07-13 09:18:00,68.0,68.0,30.42,East,90,4.0,5.0,0,0.00,,,0.00,meteohub,2013-07-13 13:18:00,
2013-07-13 09:19:00,68.0,68.0,30.42,East,90,4.0,5.0,0,0.00,,,0.00,meteohub,2013-07-13 13:19:00,
2013-07-13 09:20:00,67.8,67.8,30.41,East,90,5.0,5.0,0,0.00,,,0.00,meteohub,2013-07-13 13:20:00,
2013-07-13 09:21:00,67.8,67.8,30.42,East,90,2.0,5.0,0,0.00,,,0.00,meteohub,2013-07-13 13:21:00,
2013-07-13 09:24:00,68.0,68.0,30.42,North,0,2.0,5.0,0,0.00,,,0.00,meteohub,2013-07-13 13:24:00,
2013-07-13 09:25:00,68.0,68.0,30.41,NE,45,5.0,5.0,0,0.00,,,0.00,meteohub,2013-07-13 13:25:00,
2013-07-13 09:26:00,68.0,68.0,30.41,ENE,68,2.0,6.0,0,0.00,,,0.00,meteohub,2013-07-13 13:26:00,
2013-07-13 09:27:00,68.2,68.2,30.42,SE,135,1.0,6.0,0,0.00,,,0.00,meteohub,2013-07-13 13:27:00,
2013-07-13 09:29:00,68.4,68.4,30.42,NE,45,3.0,6.0,0,0.00,,,0.00,meteohub,2013-07-13 13:29:00,
2013-07-13 09:31:00,68.4,68.4,30.42,NE,45,4.0,6.0,0,0.00,,,0.00,meteohub,2013-07-13 13:31:00,
2013-07-13 09:32:00,68.2,68.2,30.43,North,0,4.0,6.0,0,0.00,,,0.00,meteohub,2013-07-13 13:32:00,
2013-07-13 09:33:00,68.2,68.2,30.43,East,90,4.0,6.0,0,0.00,,,0.00,meteohub,2013-07-13 13:33:00,
2013-07-13 09:36:00,68.2,68.2,30.42,NE,45,4.0,5.0,0,0.00,,,0.00,meteohub,2013-07-13 13:36:00,
2013-07-13 09:37:00,68.2,68.2,30.42,East,90,3.0,5.0,0,0.00,,,0.00,meteohub,2013-07-13 13:37:00,
2013-07-13 09:39:00,68.2,68.2,30.42,SE,135,1.0,5.0,0,0.00,,,0.00,meteohub,2013-07-13 13:39:00,
2013-07-13 09:41:00,68.5,68.5,30.42,NW,315,3.0,5.0,0,0.00,,,0.00,meteohub,2013-07-13 13:41:00,
2013-07-13 09:42:00,68.5,68.5,30.42,NE,45,2.0,5.0,0,0.00,,,0.00,meteohub,2013-07-13 13:42:00,
2013-07-13 09:43:00,68.7,68.7,30.42,NE,45,4.0,5.0,0,0.00,,,0.00,meteohub,2013-07-13 13:43:00,
2013-07-13 09:44:00,68.7,68.7,30.42,East,90,4.0,5.0,0,0.00,,,0.00,meteohub,2013-07-13 13:44:00,
2013-07-13 09:47:00,68.9,68.9,30.42,East,90,2.0,4.0,0,0.00,,,0.00,meteohub,2013-07-13 13:47:00,
2013-07-13 09:48:00,68.9,68.9,30.42,NE,45,3.0,4.0,0,0.00,,,0.00,meteohub,2013-07-13 13:48:00,
2013-07-13 09:49:00,69.1,69.1,30.42,NW,315,3.0,4.0,0,0.00,,,0.00,meteohub,2013-07-13 13:49:00,
2013-07-13 09:52:00,69.4,69.4,30.42,South,180,2.0,4.0,0,0.00,,,0.00,meteohub,2013-07-13 13:52:00,
2013-07-13 09:53:00,69.6,69.6,30.42,SE,135,2.0,4.0,0,0.00,,,0.00,meteohub,2013-07-13 13:53:00,
2013-07-13 09:54:00,69.8,69.8,30.42,NW,315,2.0,4.0,0,0.00,,,0.00,meteohub,2013-07-13 13:54:00,
2013-07-13 09:55:00,70.0,70.0,30.42,SE,135,3.0,4.0,0,0.00,,,0.00,meteohub,2013-07-13 13:55:00,
2013-07-13 09:57:00,70.2,70.2,30.42,WSW,248,4.0,4.0,0,0.00,,,0.00,meteohub,2013-07-13 13:57:00,
2013-07-13 09:58:00,70.2,70.2,30.42,NNW,338,2.0,4.0,0,0.00,,,0.00,meteohub,2013-07-13 13:58:00,
2013-07-13 09:59:00,70.2,70.2,30.43,South,180,2.0,4.0,0,0.00,,,0.00,meteohub,2013-07-13 13:59:00,
2013-07-13 10:00:00,70.2,70.2,30.42,East,90,4.0,4.0,0,0.00,,,0.00,meteohub,2013-07-13 14:00:00,
2013-07-13 10:02:00,70.2,70.2,30.42,East,90,5.0,5.0,0,0.00,,,0.00,meteohub,2013-07-13 14:02:00,
2013-07-13 10:03:00,70.2,70.2,30.42,East,90,2.0,4.0,0,0.00,,,0.00,meteohub,2013-07-13 14:03:00,
2013-07-13 10:04:00,70.2,70.2,30.43,North,0,4.0,4.0,0,0.00,,,0.00,meteohub,2013-07-13 14:04:00,
2013-07-13 10:05:00,70.2,70.2,30.42,East,90,2.0,5.0,0,0.00,,,0.00,meteohub,2013-07-13 14:05:00,
2013-07-13 10:07:00,70.2,70.2,30.42,East,90,2.0,5.0,0,0.00,,,0.00,meteohub,2013-07-13 14:07:00,
2013-07-13 10:08:00,70.2,70.2,30.42,West,270,2.0,5.0,0,0.00,,,0.00,meteohub,2013-07-13 14:08:00,
2013-07-13 10:11:00,70.5,70.5,30.42,NW,315,2.0,5.0,0,0.00,,,0.00,meteohub,2013-07-13 14:11:00,
2013-07-13 10:13:00,70.5,70.5,30.42,NE,45,2.0,5.0,0,0.00,,,0.00,meteohub,2013-07-13 14:13:00,
2013-07-13 10:16:00,70.5,70.5,30.42,North,0,3.0,5.0,0,0.00,,,0.00,meteohub,2013-07-13 14:16:00,
2013-07-13 10:17:00,70.7,70.7,30.42,NE,45,2.0,5.0,0,0.00,,,0.00,meteohub,2013-07-13 14:17:00,
2013-07-13 10:18:00,70.9,70.9,30.42,East,90,1.0,5.0,0,0.00,,,0.00,meteohub,2013-07-13 14:18:00,
2013-07-13 10:21:00,71.1,71.1,30.42,East,90,3.0,4.0,0,0.00,,,0.00,meteohub,2013-07-13 14:21:00,
2013-07-13 10:23:00,71.1,71.1,30.42,NE,45,4.0,4.0,0,0.00,,,0.00,meteohub,2013-07-13 14:23:00,
2013-07-13 10:25:00,71.4,71.4,30.42,South,180,3.0,4.0,0,0.00,,,0.00,meteohub,2013-07-13 14:25:00,
2013-07-13 10:26:00,71.8,71.8,30.42,SE,135,3.0,4.0,0,0.00,,,0.00,meteohub,2013-07-13 14:26:00,
2013-07-13 10:27:00,71.8,71.8,30.42,East,90,4.0,4.0,0,0.00,,,0.00,meteohub,2013-07-13 14:27:00,
2013-07-13 10:29:00,72.0,72.0,30.42,NE,45,3.0,4.0,0,0.00,,,0.00,meteohub,2013-07-13 14:29:00,
2013-07-13 10:31:00,72.0,72.0,30.42,NE,45,4.0,4.0,0,0.00,,,0.00,meteohub,2013-07-13 14:31:00,
2013-07-13 10:32:00,72.0,72.0,30.42,NE,45,4.0,4.0,0,0.00,,,0.00,meteohub,2013-07-13 14:32:00,
2013-07-13 10:34:00,71.6,71.6,30.42,South,180,6.0,6.0,0,0.00,,,0.00,meteohub,2013-07-13 14:34:00,
2013-07-13 10:35:00,71.6,71.6,30.42,South,180,6.0,6.0,0,0.00,,,0.00,meteohub,2013-07-13 14:35:00,
2013-07-13 10:37:00,71.6,71.6,30.42,East,90,3.0,5.0,0,0.00,,,0.00,meteohub,2013-07-13 14:37:00,
2013-07-13 10:39:00,71.6,71.6,30.42,East,90,2.0,5.0,0,0.00,,,0.00,meteohub,2013-07-13 14:39:00,
2013-07-13 10:40:00,71.8,71.8,30.42,North,0,3.0,5.0,0,0.00,,,0.00,meteohub,2013-07-13 14:40:00,
2013-07-13 10:42:00,72.1,72.1,30.42,West,270,2.0,6.0,0,0.00,,,0.00,meteohub,2013-07-13 14:42:00,
2013-07-13 10:44:00,72.3,72.3,30.42,NW,315,2.0,6.0,0,0.00,,,0.00,meteohub,2013-07-13 14:44:00,
2013-07-13 10:45:00,72.5,72.5,30.42,South,180,2.0,6.0,0,0.00,,,0.00,meteohub,2013-07-13 14:45:00,
2013-07-13 10:46:00,72.5,72.5,30.42,South,180,2.0,6.0,0,0.00,,,0.00,meteohub,2013-07-13 14:46:00,
2013-07-13 10:48:00,72.7,72.7,30.41,East,90,2.0,6.0,0,0.00,,,0.00,meteohub,2013-07-13 14:48:00,
2013-07-13 10:50:00,72.7,72.7,30.41,East,90,2.0,6.0,0,0.00,,,0.00,meteohub,2013-07-13 14:50:00,
2013-07-13 10:51:00,73.0,73.0,30.41,NE,45,2.0,4.0,0,0.00,,,0.00,meteohub,2013-07-13 14:51:00,
2013-07-13 10:52:00,73.2,73.2,30.41,South,180,3.0,4.0,0,0.00,,,0.00,meteohub,2013-07-13 14:52:00,
2013-07-13 10:53:00,73.4,73.4,30.41,WSW,248,4.0,4.0,0,0.00,,,0.00,meteohub,2013-07-13 14:53:00,
2013-07-13 10:55:00,73.6,73.6,30.41,East,90,4.0,4.0,0,0.00,,,0.00,meteohub,2013-07-13 14:55:00,
2013-07-13 10:56:00,73.8,73.8,30.41,East,90,3.0,3.0,0,0.00,,,0.00,meteohub,2013-07-13 14:56:00,
2013-07-13 10:57:00,73.8,73.8,30.42,West,270,2.0,3.0,0,0.00,,,0.00,meteohub,2013-07-13 14:57:00,
2013-07-13 10:58:00,73.9,73.9,30.41,NE,45,3.0,3.0,0,0.00,,,0.00,meteohub,2013-07-13 14:58:00,
2013-07-13 11:02:00,73.9,73.9,30.42,NE,45,4.0,4.0,0,0.00,,,0.00,meteohub,2013-07-13 15:02:00,
2013-07-13 11:03:00,73.8,73.8,30.42,NE,45,4.0,4.0,0,0.00,,,0.00,meteohub,2013-07-13 15:03:00,
2013-07-13 11:04:00,73.6,73.6,30.42,NE,45,3.0,4.0,0,0.00,,,0.00,meteohub,2013-07-13 15:04:00,
2013-07-13 11:07:00,73.4,73.4,30.42,East,90,4.0,4.0,0,0.00,,,0.00,meteohub,2013-07-13 15:07:00,
2013-07-13 11:09:00,73.4,73.4,30.42,North,0,2.0,4.0,0,0.00,,,0.00,meteohub,2013-07-13 15:09:00,
2013-07-13 11:10:00,73.4,73.4,30.42,NE,45,4.0,4.0,0,0.00,,,0.00,meteohub,2013-07-13 15:10:00,
2013-07-13 11:12:00,73.0,73.0,30.42,NE,45,3.0,4.0,0,0.00,,,0.00,meteohub,2013-07-13 15:12:00,
2013-07-13 11:13:00,73.0,73.0,30.42,WSW,248,2.0,4.0,0,0.00,,,0.00,meteohub,2013-07-13 15:13:00,
2013-07-13 11:14:00,73.2,73.2,30.42,SE,135,2.0,4.0,0,0.00,,,0.00,meteohub,2013-07-13 15:14:00,
2013-07-13 11:15:00,73.4,73.4,30.43,East,90,2.0,6.0,0,0.00,,,0.00,meteohub,2013-07-13 15:15:00,
2013-07-13 11:16:00,73.4,73.4,30.42,East,90,2.0,6.0,0,0.00,,,0.00,meteohub,2013-07-13 15:16:00,
2013-07-13 11:18:00,73.9,73.9,30.42,NE,45,2.0,6.0,0,0.00,,,0.00,meteohub,2013-07-13 15:18:00,
2013-07-13 11:19:00,73.9,73.9,30.42,North,0,3.0,6.0,0,0.00,,,0.00,meteohub,2013-07-13 15:19:00,
2013-07-13 11:22:00,74.3,74.3,30.42,NE,45,3.0,6.0,0,0.00,,,0.00,meteohub,2013-07-13 15:22:00,
2013-07-13 11:23:00,74.3,74.3,30.42,NE,45,4.0,6.0,0,0.00,,,0.00,meteohub,2013-07-13 15:23:00,
2013-07-13 11:24:00,74.7,74.7,30.42,WSW,248,3.0,6.0,0,0.00,,,0.00,meteohub,2013-07-13 15:24:00,
2013-07-13 11:25:00,74.7,74.7,30.42,WSW,248,3.0,6.0,0,0.00,,,0.00,meteohub,2013-07-13 15:25:00,
2013-07-13 11:28:00,74.8,74.8,30.42,East,90,2.0,6.0,0,0.00,,,0.00,meteohub,2013-07-13 15:28:00,
2013-07-13 11:29:00,74.8,74.8,30.42,East,90,3.0,6.0,0,0.00,,,0.00,meteohub,2013-07-13 15:29:00,
2013-07-13 11:30:00,74.8,74.8,30.43,WSW,248,2.0,4.0,0,0.00,,,0.00,meteohub,2013-07-13 15:30:00,
2013-07-13 11:33:00,74.8,74.8,30.43,WSW,248,2.0,4.0,0,0.00,,,0.00,meteohub,2013-07-13 15:33:00,
2013-07-13 11:35:00,74.8,74.8,30.43,SE,135,4.0,4.0,0,0.00,,,0.00,meteohub,2013-07-13 15:35:00,
2013-07-13 11:38:00,74.8,74.8,30.43,WSW,248,2.0,4.0,0,0.00,,,0.00,meteohub,2013-07-13 15:38:00,
2013-07-13 11:40:00,74.8,74.8,30.43,North,0,3.0,4.0,0,0.00,,,0.00,meteohub,2013-07-13 15:40:00,
2013-07-13 11:41:00,74.8,74.8,30.43,North,0,3.0,4.0,0,0.00,,,0.00,meteohub,2013-07-13 15:41:00,
2013-07-13 11:44:00,74.7,74.7,30.43,SE,135,2.0,4.0,0,0.00,,,0.00,meteohub,2013-07-13 15:44:00,
2013-07-13 11:45:00,74.7,74.7,30.43,SE,135,2.0,4.0,0,0.00,,,0.00,meteohub,2013-07-13 15:45:00,
2013-07-13 11:46:00,74.7,74.7,30.43,SE,135,2.0,4.0,0,0.00,,,0.00,meteohub,2013-07-13 15:46:00,
2013-07-13 11:47:00,75.2,75.2,30.43,South,180,2.0,4.0,0,0.00,,,0.00,meteohub,2013-07-13 15:47:00,
2013-07-13 11:49:00,75.7,75.7,30.43,SE,135,2.0,4.0,0,0.00,,,0.00,meteohub,2013-07-13 15:49:00,
2013-07-13 11:50:00,75.9,75.9,30.43,SE,135,3.0,4.0,0,0.00,,,0.00,meteohub,2013-07-13 15:50:00,
2013-07-13 11:51:00,76.1,76.1,30.43,South,180,2.0,4.0,0,0.00,,,0.00,meteohub,2013-07-13 15:51:00,
2013-07-13 11:52:00,76.1,76.1,30.43,South,180,2.0,4.0,0,0.00,,,0.00,meteohub,2013-07-13 15:52:00,
2013-07-13 11:53:00,76.1,76.1,30.43,South,180,2.0,4.0,0,0.00,,,0.00,meteohub,2013-07-13 15:53:00,
2013-07-13 11:55:00,76.1,76.1,30.43,West,270,2.0,4.0,0,0.00,,,0.00,meteohub,2013-07-13 15:55:00,
2013-07-13 11:57:00,76.1,76.1,30.43,SE,135,5.0,5.0,0,0.00,,,0.00,meteohub,2013-07-13 15:57:00,
2013-07-13 11:58:00,76.1,76.1,30.43,SE,135,5.0,5.0,0,0.00,,,0.00,meteohub,2013-07-13 15:58:00,
2013-07-13 12:00:00,75.9,75.9,30.43,East,90,4.0,5.0,0,0.00,,,0.00,meteohub,2013-07-13 16:00:00,
2013-07-13 12:01:00,75.9,75.9,30.43,East,90,4.0,5.0,0,0.00,,,0.00,meteohub,2013-07-13 16:01:00,
2013-07-13 12:03:00,75.9,75.9,30.43,East,90,4.0,5.0,0,0.00,,,0.00,meteohub,2013-07-13 16:03:00,
2013-07-13 12:06:00,75.9,75.9,30.43,East,90,4.0,5.0,0,0.00,,,0.00,meteohub,2013-07-13 16:06:00,
2013-07-13 12:07:00,75.9,75.9,30.43,East,90,4.0,5.0,0,0.00,,,0.00,meteohub,2013-07-13 16:07:00,
2013-07-13 12:08:00,75.4,75.4,30.43,South,180,2.0,5.0,0,0.00,,,0.00,meteohub,2013-07-13 16:08:00,
2013-07-13 12:09:00,75.4,75.4,30.44,North,0,3.0,5.0,0,0.00,,,0.00,meteohub,2013-07-13 16:09:00,
2013-07-13 12:11:00,75.4,75.4,30.43,WSW,248,3.0,5.0,0,0.00,,,0.00,meteohub,2013-07-13 16:11:00,
2013-07-13 12:12:00,75.4,75.4,30.43,East,90,2.0,5.0,0,0.00,,,0.00,meteohub,2013-07-13 16:12:00,
2013-07-13 12:13:00,75.4,75.4,30.43,North,0,4.0,5.0,0,0.00,,,0.00,meteohub,2013-07-13 16:13:00,
2013-07-13 12:14:00,75.4,75.4,30.43,East,90,3.0,5.0,0,0.00,,,0.00,meteohub,2013-07-13 16:14:00,
2013-07-13 12:15:00,75.2,75.2,30.43,East,90,2.0,5.0,0,0.00,,,0.00,meteohub,2013-07-13 16:15:00,
2013-07-13 12:16:00,75.4,75.4,30.43,East,90,2.0,4.0,0,0.00,,,0.00,meteohub,2013-07-13 16:16:00,
2013-07-13 12:17:00,75.4,75.4,30.44,South,180,1.0,4.0,0,0.00,,,0.00,meteohub,2013-07-13 16:17:00,
2013-07-13 12:18:00,75.6,75.6,30.43,WSW,248,0.0,4.0,0,0.00,,,0.00,meteohub,2013-07-13 16:18:00,
2013-07-13 12:20:00,75.6,75.6,30.43,South,180,3.0,4.0,0,0.00,,,0.00,meteohub,2013-07-13 16:20:00,
2013-07-13 12:21:00,75.6,75.6,30.43,North,0,2.0,4.0,0,0.00,,,0.00,meteohub,2013-07-13 16:21:00,
2013-07-13 12:22:00,75.6,75.6,30.43,North,0,2.0,4.0,0,0.00,,,0.00,meteohub,2013-07-13 16:22:00,
2013-07-13 12:23:00,75.6,75.6,30.43,East,90,3.0,4.0,0,0.00,,,0.00,meteohub,2013-07-13 16:23:00,
2013-07-13 12:24:00,75.6,75.6,30.43,East,90,2.0,4.0,0,0.00,,,0.00,meteohub,2013-07-13 16:24:00,
2013-07-13 12:26:00,75.6,75.6,30.43,East,90,2.0,4.0,0,0.00,,,0.00,meteohub,2013-07-13 16:26:00,
2013-07-13 12:27:00,75.7,75.7,30.43,South,180,1.0,4.0,0,0.00,,,0.00,meteohub,2013-07-13 16:27:00,
2013-07-13 12:29:00,75.9,75.9,30.43,NE,45,3.0,4.0,0,0.00,,,0.00,meteohub,2013-07-13 16:29:00,
2013-07-13 12:30:00,75.9,75.9,30.44,East,90,2.0,3.0,0,0.00,,,0.00,meteohub,2013-07-13 16:30:00,
2013-07-13 12:31:00,75.9,75.9,30.43,East,90,2.0,3.0,0,0.00,,,0.00,meteohub,2013-07-13 16:31:00,
2013-07-13 12:32:00,75.9,75.9,30.43,NE,45,2.0,3.0,0,0.00,,,0.00,meteohub,2013-07-13 16:32:00,
2013-07-13 12:33:00,75.7,75.7,30.43,North,0,4.0,4.0,0,0.00,,,0.00,meteohub,2013-07-13 16:33:00,
2013-07-13 12:35:00,75.6,75.6,30.43,SE,135,2.0,3.0,0,0.00,,,0.00,meteohub,2013-07-13 16:35:00,
2013-07-13 12:36:00,75.7,75.7,30.43,South,180,2.0,4.0,0,0.00,,,0.00,meteohub,2013-07-13 16:36:00,
2013-07-13 12:37:00,75.7,75.7,30.43,NW,315,0.0,4.0,0,0.00,,,0.00,meteohub,2013-07-13 16:37:00,
2013-07-13 12:38:00,75.7,75.7,30.43,NE,45,1.0,4.0,0,0.00,,,0.00,meteohub,2013-07-13 16:38:00,
2013-07-13 12:40:00,76.1,76.1,30.43,NE,45,0.0,4.0,0,0.00,,,0.00,meteohub,2013-07-13 16:40:00,
2013-07-13 12:42:00,75.9,75.9,30.43,North,0,3.0,4.0,0,0.00,,,0.00,meteohub,2013-07-13 16:42:00,
2013-07-13 12:43:00,75.7,75.7,30.43,NE,45,1.0,4.0,0,0.00,,,0.00,meteohub,2013-07-13 16:43:00,
2013-07-13 12:45:00,75.7,75.7,30.43,East,90,3.0,4.0,0,0.00,,,0.00,meteohub,2013-07-13 16:45:00,
2013-07-13 12:48:00,75.7,75.7,30.43,North,0,2.0,4.0,0,0.00,,,0.00,meteohub,2013-07-13 16:48:00,
2013-07-13 12:49:00,75.7,75.7,30.43,West,270,2.0,4.0,0,0.00,,,0.00,meteohub,2013-07-13 16:49:00,
2013-07-13 12:50:00,75.7,75.7,30.43,NE,45,2.0,3.0,0,0.00,,,0.00,meteohub,2013-07-13 16:50:00,
2013-07-13 12:51:00,75.9,75.9,30.43,NE,45,1.0,3.0,0,0.00,,,0.00,meteohub,2013-07-13 16:51:00,
2013-07-13 12:54:00,76.5,76.5,30.43,NE,45,2.0,3.0,0,0.00,,,0.00,meteohub,2013-07-13 16:54:00,
2013-07-13 12:55:00,76.5,76.5,30.43,SE,135,2.0,3.0,0,0.00,,,0.00,meteohub,2013-07-13 16:55:00,
2013-07-13 12:57:00,77.0,77.0,30.43,NE,45,2.0,3.0,0,0.00,,,0.00,meteohub,2013-07-13 16:57:00,
2013-07-13 12:59:00,76.8,76.8,30.43,NE,45,4.0,4.0,0,0.00,,,0.00,meteohub,2013-07-13 16:59:00,
2013-07-13 13:00:00,76.6,76.6,30.43,West,270,3.0,3.0,0,0.00,,,0.00,meteohub,2013-07-13 17:00:00,
2013-07-13 13:01:00,76.6,76.6,30.43,West,270,3.0,3.0,0,0.00,,,0.00,meteohub,2013-07-13 17:01:00,
2013-07-13 13:02:00,76.6,76.6,30.43,West,270,3.0,3.0,0,0.00,,,0.00,meteohub,2013-07-13 17:02:00,
2013-07-13 13:04:00,76.6,76.6,30.43,West,270,3.0,3.0,0,0.00,,,0.00,meteohub,2013-07-13 17:04:00,
2013-07-13 13:05:00,76.6,76.6,30.43,West,270,3.0,5.0,0,0.00,,,0.00,meteohub,2013-07-13 17:05:00,
2013-07-13 13:06:00,76.6,76.6,30.43,West,270,3.0,5.0,0,0.00,,,0.00,meteohub,2013-07-13 17:06:00,
2013-07-13 13:08:00,76.3,76.3,30.43,East,90,2.0,5.0,0,0.00,,,0.00,meteohub,2013-07-13 17:08:00,
2013-07-13 13:10:00,76.3,76.3,30.43,NE,45,2.0,5.0,0,0.00,,,0.00,meteohub,2013-07-13 17:10:00,
2013-07-13 13:11:00,76.1,76.1,30.43,SE,135,0.0,5.0,0,0.00,,,0.00,meteohub,2013-07-13 17:11:00,
2013-07-13 13:12:00,76.1,76.1,30.43,SE,135,0.0,5.0,0,0.00,,,0.00,meteohub,2013-07-13 17:12:00,
2013-07-13 13:13:00,76.1,76.1,30.43,NE,45,3.0,5.0,0,0.00,,,0.00,meteohub,2013-07-13 17:13:00,
2013-07-13 13:16:00,75.4,75.4,30.43,NE,45,0.0,3.0,0,0.00,,,0.00,meteohub,2013-07-13 17:16:00,
2013-07-13 13:17:00,75.2,75.2,30.43,NE,45,0.0,3.0,0,0.00,,,0.00,meteohub,2013-07-13 17:17:00,
2013-07-13 13:18:00,75.0,75.0,30.43,NE,45,0.0,3.0,0,0.00,,,0.00,meteohub,2013-07-13 17:18:00,
2013-07-13 13:21:00,74.5,74.5,30.43,East,90,0.0,3.0,0,0.00,,,0.00,meteohub,2013-07-13 17:21:00,
2013-07-13 13:22:00,74.3,74.3,30.43,East,90,1.0,3.0,0,0.00,,,0.00,meteohub,2013-07-13 17:22:00,
2013-07-13 13:23:00,74.3,74.3,30.43,East,90,1.0,3.0,0,0.00,,,0.00,meteohub,2013-07-13 17:23:00,
2013-07-13 13:24:00,74.3,74.3,30.43,NE,45,2.0,3.0,0,0.00,,,0.00,meteohub,2013-07-13 17:24:00,
2013-07-13 13:27:00,73.9,73.9,30.43,East,90,2.0,3.0,0,0.00,,,0.00,meteohub,2013-07-13 17:27:00,
2013-07-13 13:29:00,73.9,73.9,30.44,East,90,1.0,3.0,0,0.00,,,0.00,meteohub,2013-07-13 17:29:00,
2013-07-13 13:32:00,73.9,73.9,30.44,East,90,3.0,3.0,0,0.00,,,0.00,meteohub,2013-07-13 17:32:00,
2013-07-13 13:33:00,73.9,73.9,30.44,NE,45,4.0,4.0,0,0.00,,,0.00,meteohub,2013-07-13 17:33:00,
2013-07-13 13:34:00,74.1,74.1,30.44,East,90,2.0,2.0,0,0.00,,,0.00,meteohub,2013-07-13 17:34:00,
2013-07-13 13:36:00,74.3,74.3,30.44,WSW,248,2.0,4.0,0,0.00,,,0.00,meteohub,2013-07-13 17:36:00,
2013-07-13 13:37:00,74.5,74.5,30.44,SE,135,2.0,4.0,0,0.00,,,0.00,meteohub,2013-07-13 17:37:00,
2013-07-13 13:38:00,74.7,74.7,30.44,East,90,2.0,4.0,0,0.00,,,0.00,meteohub,2013-07-13 17:38:00,
2013-07-13 13:40:00,74.8,74.8,30.44,East,90,2.0,4.0,0,0.00,,,0.00,meteohub,2013-07-13 17:40:00,
2013-07-13 13:42:00,74.8,74.8,30.44,North,0,2.0,4.0,0,0.00,,,0.00,meteohub,2013-07-13 17:42:00,
2013-07-13 13:43:00,74.8,74.8,30.44,North,0,2.0,4.0,0,0.00,,,0.00,meteohub,2013-07-13 17:43:00,
2013-07-13 13:44:00,75.0,75.0,30.44,NW,315,1.0,4.0,0,0.00,,,0.00,meteohub,2013-07-13 17:44:00,
2013-07-13 13:46:00,75.0,75.0,30.44,East,90,3.0,4.0,0,0.00,,,0.00,meteohub,2013-07-13 17:46:00,
2013-07-13 13:48:00,75.4,75.4,30.43,East,90,2.0,4.0,0,0.00,,,0.00,meteohub,2013-07-13 17:48:00,
2013-07-13 13:49:00,75.2,75.2,30.43,East,90,2.0,4.0,0,0.00,,,0.00,meteohub,2013-07-13 17:49:00,
2013-07-13 13:52:00,75.0,75.0,30.43,SE,135,2.0,4.0,0,0.00,,,0.00,meteohub,2013-07-13 17:52:00,
2013-07-13 13:53:00,75.0,75.0,30.43,East,90,2.0,4.0,0,0.00,,,0.00,meteohub,2013-07-13 17:53:00,
2013-07-13 13:54:00,74.8,74.8,30.44,East,90,2.0,4.0,0,0.00,,,0.00,meteohub,2013-07-13 17:54:00,
2013-07-13 13:58:00,74.7,74.7,30.43,NE,45,1.0,4.0,0,0.00,,,0.00,meteohub,2013-07-13 17:58:00,
2013-07-13 13:59:00,74.5,74.5,30.43,NW,315,1.0,4.0,0,0.00,,,0.00,meteohub,2013-07-13 17:59:00,
2013-07-13 14:00:00,74.5,74.5,30.43,NW,315,1.0,4.0,0,0.00,,,0.00,meteohub,2013-07-13 18:00:00,
2013-07-13 14:04:00,74.5,74.5,30.43,NW,315,1.0,4.0,0,0.00,,,0.00,meteohub,2013-07-13 18:04:00,
2013-07-13 14:05:00,74.5,74.5,30.43,NW,315,1.0,4.0,0,0.00,,,0.00,meteohub,2013-07-13 18:05:00,
2013-07-13 14:06:00,74.5,74.5,30.44,NW,315,1.0,4.0,0,0.00,,,0.00,meteohub,2013-07-13 18:06:00,
2013-07-13 14:10:00,73.4,73.4,30.44,East,90,1.0,4.0,0,0.00,,,0.00,meteohub,2013-07-13 18:10:00,
2013-07-13 14:12:00,73.4,73.4,30.43,East,90,2.0,3.0,0,0.00,,,0.00,meteohub,2013-07-13 18:12:00,
2013-07-13 14:15:00,73.2,73.2,30.43,NE,45,2.0,3.0,0,0.00,,,0.00,meteohub,2013-07-13 18:15:00,
2013-07-13 14:16:00,73.2,73.2,30.43,North,0,2.0,2.0,0,0.00,,,0.00,meteohub,2013-07-13 18:16:00,
2013-07-13 14:18:00,73.4,73.4,30.43,NE,45,0.0,2.0,0,0.00,,,0.00,meteohub,2013-07-13 18:18:00,
2013-07-13 14:20:00,73.6,73.6,30.43,NE,45,0.0,2.0,0,0.00,,,0.00,meteohub,2013-07-13 18:20:00,
2013-07-13 14:21:00,73.9,73.9,30.44,East,90,0.0,2.0,0,0.00,,,0.00,meteohub,2013-07-13 18:21:00,
2013-07-13 14:22:00,73.9,73.9,30.44,East,90,0.0,2.0,0,0.00,,,0.00,meteohub,2013-07-13 18:22:00,
2013-07-13 14:25:00,74.3,74.3,30.44,East,90,1.0,2.0,0,0.00,,,0.00,meteohub,2013-07-13 18:25:00,
2013-07-13 14:26:00,74.5,74.5,30.44,South,180,0.0,2.0,0,0.00,,,0.00,meteohub,2013-07-13 18:26:00,
2013-07-13 14:28:00,75.0,75.0,30.44,North,0,2.0,2.0,0,0.00,,,0.00,meteohub,2013-07-13 18:28:00,
2013-07-13 14:29:00,75.2,75.2,30.43,East,90,2.0,2.0,0,0.00,,,0.00,meteohub,2013-07-13 18:29:00,
2013-07-13 14:30:00,75.6,75.6,30.43,NW,315,2.0,2.0,0,0.00,,,0.00,meteohub,2013-07-13 18:30:00,
2013-07-13 14:31:00,75.9,75.9,30.43,East,90,2.0,2.0,0,0.00,,,0.00,meteohub,2013-07-13 18:31:00,
2013-07-13 14:32:00,76.3,76.3,30.43,West,270,2.0,2.0,0,0.00,,,0.00,meteohub,2013-07-13 18:32:00,
2013-07-13 14:33:00,76.5,76.5,30.43,NE,45,4.0,4.0,0,0.00,,,0.00,meteohub,2013-07-13 18:33:00,
2013-07-13 14:36:00,76.8,76.8,30.44,NE,45,4.0,4.0,0,0.00,,,0.00,meteohub,2013-07-13 18:36:00,
2013-07-13 14:37:00,76.6,76.6,30.44,NE,45,2.0,2.0,0,0.00,,,0.00,meteohub,2013-07-13 18:37:00,
2013-07-13 14:39:00,76.5,76.5,30.44,West,270,2.0,2.0,0,0.00,,,0.00,meteohub,2013-07-13 18:39:00,
2013-07-13 14:41:00,76.3,76.3,30.44,East,90,2.0,4.0,0,0.00,,,0.00,meteohub,2013-07-13 18:41:00,
2013-07-13 14:42:00,76.3,76.3,30.44,East,90,2.0,4.0,0,0.00,,,0.00,meteohub,2013-07-13 18:42:00,
2013-07-13 14:44:00,76.1,76.1,30.44,NE,45,2.0,4.0,0,0.00,,,0.00,meteohub,2013-07-13 18:44:00,
2013-07-13 14:46:00,75.9,75.9,30.43,East,90,1.0,4.0,0,0.00,,,0.00,meteohub,2013-07-13 18:46:00,
2013-07-13 14:48:00,75.9,75.9,30.43,SE,135,3.0,4.0,0,0.00,,,0.00,meteohub,2013-07-13 18:48:00,
2013-07-13 14:49:00,75.9,75.9,30.44,NE,45,4.0,4.0,0,0.00,,,0.00,meteohub,2013-07-13 18:49:00,
2013-07-13 14:50:00,75.9,75.9,30.43,SE,135,2.0,4.0,0,0.00,,,0.00,meteohub,2013-07-13 18:50:00,
2013-07-13 14:52:00,75.7,75.7,30.43,East,90,3.0,4.0,0,0.00,,,0.00,meteohub,2013-07-13 18:52:00,
2013-07-13 14:53:00,75.7,75.7,30.44,SE,135,2.0,4.0,0,0.00,,,0.00,meteohub,2013-07-13 18:53:00,
2013-07-13 14:54:00,75.7,75.7,30.44,SE,135,2.0,4.0,0,0.00,,,0.00,meteohub,2013-07-13 18:54:00,
2013-07-13 14:55:00,75.7,75.7,30.44,East,90,2.0,4.0,0,0.00,,,0.00,meteohub,2013-07-13 18:55:00,
2013-07-13 14:57:00,75.7,75.7,30.43,East,90,2.0,4.0,0,0.00,,,0.00,meteohub,2013-07-13 18:57:00,
2013-07-13 14:59:00,75.7,75.7,30.43,East,90,2.0,4.0,0,0.00,,,0.00,meteohub,2013-07-13 18:59:00,
2013-07-13 15:00:00,75.7,75.7,30.43,NE,45,3.0,4.0,0,0.00,,,0.00,meteohub,2013-07-13 19:00:00,
2013-07-13 15:01:00,75.7,75.7,30.43,NE,45,3.0,4.0,0,0.00,,,0.00,meteohub,2013-07-13 19:01:00,
2013-07-13 15:04:00,75.7,75.7,30.43,NE,45,3.0,4.0,0,0.00,,,0.00,meteohub,2013-07-13 19:04:00,
2013-07-13 15:05:00,75.7,75.7,30.43,NE,45,3.0,3.0,0,0.00,,,0.00,meteohub,2013-07-13 19:05:00,
2013-07-13 15:07:00,75.7,75.7,30.43,NE,45,3.0,3.0,0,0.00,,,0.00,meteohub,2013-07-13 19:07:00,
2013-07-13 15:09:00,77.0,77.0,30.43,SE,135,5.0,5.0,0,0.00,,,0.00,meteohub,2013-07-13 19:09:00,
2013-07-13 15:10:00,76.6,76.6,30.44,East,90,2.0,6.0,0,0.00,,,0.00,meteohub,2013-07-13 19:10:00,
2013-07-13 15:11:00,76.6,76.6,30.44,East,90,2.0,6.0,0,0.00,,,0.00,meteohub,2013-07-13 19:11:00,
2013-07-13 15:12:00,76.5,76.5,30.44,East,90,5.0,6.0,0,0.00,,,0.00,meteohub,2013-07-13 19:12:00,
2013-07-13 15:15:00,75.9,75.9,30.44,East,90,2.0,6.0,0,0.00,,,0.00,meteohub,2013-07-13 19:15:00,
2013-07-13 15:16:00,75.7,75.7,30.43,North,0,2.0,6.0,0,0.00,,,0.00,meteohub,2013-07-13 19:16:00,
2013-07-13 15:17:00,75.7,75.7,30.44,East,90,2.0,6.0,0,0.00,,,0.00,meteohub,2013-07-13 19:17:00,
2013-07-13 15:18:00,75.7,75.7,30.44,South,180,1.0,6.0,0,0.00,,,0.00,meteohub,2013-07-13 19:18:00,
2013-07-13 15:20:00,75.9,75.9,30.43,East,90,4.0,6.0,0,0.00,,,0.00,meteohub,2013-07-13 19:20:00,
2013-07-13 15:22:00,76.1,76.1,30.44,NE,45,2.0,6.0,0,0.00,,,0.00,meteohub,2013-07-13 19:22:00,
2013-07-13 15:23:00,76.3,76.3,30.44,East,90,2.0,6.0,0,0.00,,,0.00,meteohub,2013-07-13 19:23:00,
2013-07-13 15:25:00,76.8,76.8,30.44,West,270,2.0,5.0,0,0.00,,,0.00,meteohub,2013-07-13 19:25:00,
2013-07-13 15:27:00,77.0,77.0,30.44,NW,315,2.0,5.0,0,0.00,,,0.00,meteohub,2013-07-13 19:27:00,
2013-07-13 15:28:00,77.5,77.5,30.44,NE,45,3.0,5.0,0,0.00,,,0.00,meteohub,2013-07-13 19:28:00,
2013-07-13 15:29:00,77.7,77.7,30.44,East,90,3.0,5.0,0,0.00,,,0.00,meteohub,2013-07-13 19:29:00,
2013-07-13 15:30:00,77.9,77.9,30.44,South,180,2.0,4.0,0,0.00,,,0.00,meteohub,2013-07-13 19:30:00,
2013-07-13 15:33:00,78.1,78.1,30.44,West,270,2.0,4.0,0,0.00,,,0.00,meteohub,2013-07-13 19:33:00,
2013-07-13 15:34:00,78.1,78.1,30.43,West,270,2.0,4.0,0,0.00,,,0.00,meteohub,2013-07-13 19:34:00,
2013-07-13 15:35:00,77.9,77.9,30.44,South,180,3.0,4.0,0,0.00,,,0.00,meteohub,2013-07-13 19:35:00,
2013-07-13 15:36:00,77.9,77.9,30.43,East,90,2.0,4.0,0,0.00,,,0.00,meteohub,2013-07-13 19:36:00,
2013-07-13 15:39:00,77.7,77.7,30.44,East,90,3.0,4.0,0,0.00,,,0.00,meteohub,2013-07-13 19:39:00,
2013-07-13 15:40:00,77.7,77.7,30.44,East,90,3.0,4.0,0,0.00,,,0.00,meteohub,2013-07-13 19:40:00,
2013-07-13 15:41:00,77.7,77.7,30.44,North,0,3.0,3.0,0,0.00,,,0.00,meteohub,2013-07-13 19:41:00,
2013-07-13 15:42:00,77.7,77.7,30.44,NE,45,2.0,3.0,0,0.00,,,0.00,meteohub,2013-07-13 19:42:00,
2013-07-13 15:44:00,77.7,77.7,30.44,North,0,2.0,3.0,0,0.00,,,0.00,meteohub,2013-07-13 19:44:00,
2013-07-13 15:45:00,77.7,77.7,30.44,NE,45,2.0,3.0,0,0.00,,,0.00,meteohub,2013-07-13 19:45:00,
2013-07-13 15:46:00,77.9,77.9,30.44,East,90,2.0,3.0,0,0.00,,,0.00,meteohub,2013-07-13 19:46:00,
2013-07-13 15:47:00,78.1,78.1,30.44,South,180,2.0,3.0,0,0.00,,,0.00,meteohub,2013-07-13 19:47:00,
2013-07-13 15:49:00,78.4,78.4,30.44,SE,135,4.0,4.0,0,0.00,,,0.00,meteohub,2013-07-13 19:49:00,
2013-07-13 15:50:00,78.4,78.4,30.44,North,0,3.0,4.0,0,0.00,,,0.00,meteohub,2013-07-13 19:50:00,
2013-07-13 15:52:00,78.6,78.6,30.45,WSW,248,2.0,4.0,0,0.00,,,0.00,meteohub,2013-07-13 19:52:00,
2013-07-13 15:53:00,78.6,78.6,30.44,East,90,2.0,4.0,0,0.00,,,0.00,meteohub,2013-07-13 19:53:00,
2013-07-13 15:54:00,78.6,78.6,30.44,SE,135,2.0,4.0,0,0.00,,,0.00,meteohub,2013-07-13 19:54:00,
2013-07-13 15:55:00,78.4,78.4,30.44,East,90,4.0,4.0,0,0.00,,,0.00,meteohub,2013-07-13 19:55:00,
2013-07-13 15:56:00,78.4,78.4,30.44,East,90,4.0,4.0,0,0.00,,,0.00,meteohub,2013-07-13 19:56:00,
2013-07-13 15:58:00,78.1,78.1,30.44,NE,45,2.0,4.0,0,0.00,,,0.00,meteohub,2013-07-13 19:58:00,
2013-07-13 15:59:00,78.1,78.1,30.44,NE,45,2.0,4.0,0,0.00,,,0.00,meteohub,2013-07-13 19:59:00,
2013-07-13 16:02:00,78.1,78.1,30.44,NE,45,2.0,4.0,0,0.00,,,0.00,meteohub,2013-07-13 20:02:00,
2013-07-13 16:03:00,78.1,78.1,30.44,NE,45,2.0,4.0,0,0.00,,,0.00,meteohub,2013-07-13 20:03:00,
2013-07-13 16:04:00,78.1,78.1,30.44,NE,45,2.0,4.0,0,0.00,,,0.00,meteohub,2013-07-13 20:04:00,
2013-07-13 16:05:00,78.1,78.1,30.44,NE,45,2.0,4.0,0,0.00,,,0.00,meteohub,2013-07-13 20:05:00,
2013-07-13 16:07:00,78.4,78.4,30.44,South,180,2.0,4.0,0,0.00,,,0.00,meteohub,2013-07-13 20:07:00,
2013-07-13 16:09:00,78.8,78.8,30.44,West,270,1.0,4.0,0,0.00,,,0.00,meteohub,2013-07-13 20:09:00,
2013-07-13 16:10:00,79.0,79.0,30.44,SE,135,2.0,4.0,0,0.00,,,0.00,meteohub,2013-07-13 20:10:00,
2013-07-13 16:11:00,80.1,80.1,30.44,WSW,248,2.0,4.0,0,0.00,,,0.00,meteohub,2013-07-13 20:11:00,
2013-07-13 16:13:00,80.8,80.8,30.44,South,180,5.0,5.0,0,0.00,,,0.00,meteohub,2013-07-13 20:13:00,
2013-07-13 16:15:00,81.1,81.1,30.44,West,270,3.0,4.0,0,0.00,,,0.00,meteohub,2013-07-13 20:15:00,
2013-07-13 16:16:00,80.8,80.8,30.43,NW,315,3.0,5.0,0,0.00,,,0.00,meteohub,2013-07-13 20:16:00,
2013-07-13 16:18:00,80.4,80.4,30.43,South,180,2.0,5.0,0,0.00,,,0.00,meteohub,2013-07-13 20:18:00,
2013-07-13 16:20:00,80.1,80.1,30.44,East,90,1.0,5.0,0,0.00,,,0.00,meteohub,2013-07-13 20:20:00,
2013-07-13 16:22:00,80.2,80.2,30.44,South,180,3.0,5.0,0,0.00,,,0.00,meteohub,2013-07-13 20:22:00,
2013-07-13 16:23:00,80.2,80.2,30.44,South,180,3.0,5.0,0,0.00,,,0.00,meteohub,2013-07-13 20:23:00,
2013-07-13 16:25:00,80.8,80.8,30.44,South,180,2.0,5.0,0,0.00,,,0.00,meteohub,2013-07-13 20:25:00,
2013-07-13 16:26:00,81.7,81.7,30.43,NW,315,2.0,5.0,0,0.00,,,0.00,meteohub,2013-07-13 20:26:00,
2013-07-13 16:27:00,81.7,81.7,30.43,NW,315,2.0,5.0,0,0.00,,,0.00,meteohub,2013-07-13 20:27:00,
2013-07-13 16:28:00,82.2,82.2,30.44,NE,45,3.0,5.0,0,0.00,,,0.00,meteohub,2013-07-13 20:28:00,
2013-07-13 16:30:00,82.6,82.6,30.44,WSW,248,4.0,5.0,0,0.00,,,0.00,meteohub,2013-07-13 20:30:00,
2013-07-13 16:31:00,82.6,82.6,30.44,NW,315,4.0,4.0,0,0.00,,,0.00,meteohub,2013-07-13 20:31:00,
2013-07-13 16:32:00,82.6,82.6,30.44,WSW,248,2.0,3.0,0,0.00,,,0.00,meteohub,2013-07-13 20:32:00,
2013-07-13 16:33:00,82.8,82.8,30.44,SE,135,1.0,3.0,0,0.00,,,0.00,meteohub,2013-07-13 20:33:00,
2013-07-13 16:34:00,83.3,83.3,30.44,WSW,248,2.0,3.0,0,0.00,,,0.00,meteohub,2013-07-13 20:34:00,
2013-07-13 16:35:00,83.7,83.7,30.44,South,180,2.0,4.0,0,0.00,,,0.00,meteohub,2013-07-13 20:35:00,
2013-07-13 16:37:00,83.8,83.8,30.44,East,90,3.0,4.0,0,0.00,,,0.00,meteohub,2013-07-13 20:37:00,
2013-07-13 16:38:00,83.3,83.3,30.44,East,90,3.0,4.0,0,0.00,,,0.00,meteohub,2013-07-13 20:38:00,
2013-07-13 16:39:00,82.9,82.9,30.44,East,90,2.0,4.0,0,0.00,,,0.00,meteohub,2013-07-13 20:39:00,
2013-07-13 16:40:00,82.4,82.4,30.44,East,90,2.0,4.0,0,0.00,,,0.00,meteohub,2013-07-13 20:40:00,
2013-07-13 16:42:00,81.5,81.5,30.44,East,90,3.0,4.0,0,0.00,,,0.00,meteohub,2013-07-13 20:42:00,
2013-07-13 16:44:00,81.5,81.5,30.43,South,180,2.0,4.0,0,0.00,,,0.00,meteohub,2013-07-13 20:44:00,
2013-07-13 16:45:00,81.9,81.9,30.43,East,90,2.0,4.0,0,0.00,,,0.00,meteohub,2013-07-13 20:45:00,
2013-07-13 16:48:00,82.8,82.8,30.43,East,90,2.0,4.0,0,0.00,,,0.00,meteohub,2013-07-13 20:48:00,
2013-07-13 16:49:00,83.1,83.1,30.43,WSW,248,3.0,4.0,0,0.00,,,0.00,meteohub,2013-07-13 20:49:00,
2013-07-13 16:50:00,83.7,83.7,30.43,West,270,2.0,4.0,0,0.00,,,0.00,meteohub,2013-07-13 20:50:00,
2013-07-13 16:51:00,83.7,83.7,30.43,West,270,2.0,4.0,0,0.00,,,0.00,meteohub,2013-07-13 20:51:00,
2013-07-13 16:53:00,84.0,84.0,30.43,East,90,4.0,4.0,0,0.00,,,0.00,meteohub,2013-07-13 20:53:00,
2013-07-13 16:54:00,84.0,84.0,30.43,East,90,4.0,4.0,0,0.00,,,0.00,meteohub,2013-07-13 20:54:00,
2013-07-13 16:55:00,83.8,83.8,30.44,South,180,4.0,4.0,0,0.00,,,0.00,meteohub,2013-07-13 20:55:00,
2013-07-13 16:56:00,83.7,83.7,30.43,NE,45,3.0,4.0,0,0.00,,,0.00,meteohub,2013-07-13 20:56:00,
2013-07-13 16:57:00,83.3,83.3,30.43,East,90,2.0,4.0,0,0.00,,,0.00,meteohub,2013-07-13 20:57:00,
2013-07-13 16:59:00,82.8,82.8,30.43,East,90,2.0,4.0,0,0.00,,,0.00,meteohub,2013-07-13 20:59:00,
2013-07-13 17:00:00,82.6,82.6,30.43,SE,135,2.0,4.0,0,0.00,,,0.00,meteohub,2013-07-13 21:00:00,
2013-07-13 17:01:00,82.6,82.6,30.44,SE,135,2.0,4.0,0,0.00,,,0.00,meteohub,2013-07-13 21:01:00,
2013-07-13 17:02:00,82.6,82.6,30.44,SE,135,2.0,4.0,0,0.00,,,0.00,meteohub,2013-07-13 21:02:00,
2013-07-13 17:05:00,82.6,82.6,30.44,SE,135,2.0,4.0,0,0.00,,,0.00,meteohub,2013-07-13 21:05:00,
2013-07-13 17:06:00,82.6,82.6,30.44,SE,135,2.0,4.0,0,0.00,,,0.00,meteohub,2013-07-13 21:06:00,
2013-07-13 17:07:00,80.2,80.2,30.44,NE,45,2.0,4.0,0,0.00,,,0.00,meteohub,2013-07-13 21:07:00,
2013-07-13 17:08:00,80.4,80.4,30.44,NE,45,2.0,4.0,0,0.00,,,0.00,meteohub,2013-07-13 21:08:00,
2013-07-13 17:09:00,80.4,80.4,30.44,NE,45,2.0,4.0,0,0.00,,,0.00,meteohub,2013-07-13 21:09:00,
2013-07-13 17:11:00,80.8,80.8,30.44,South,180,2.0,3.0,0,0.00,,,0.00,meteohub,2013-07-13 21:11:00,
2013-07-13 17:12:00,81.1,81.1,30.44,North,0,2.0,3.0,0,0.00,,,0.00,meteohub,2013-07-13 21:12:00,
2013-07-13 17:13:00,81.7,81.7,30.44,SE,135,2.0,3.0,0,0.00,,,0.00,meteohub,2013-07-13 21:13:00,
2013-07-13 17:14:00,81.7,81.7,30.44,SE,135,2.0,3.0,0,0.00,,,0.00,meteohub,2013-07-13 21:14:00,
2013-07-13 17:17:00,82.9,82.9,30.43,WSW,248,2.0,2.0,0,0.00,,,0.00,meteohub,2013-07-13 21:17:00,
2013-07-13 17:19:00,83.7,83.7,30.44,South,180,2.0,2.0,0,0.00,,,0.00,meteohub,2013-07-13 21:19:00,
2013-07-13 17:20:00,83.8,83.8,30.43,South,180,2.0,2.0,0,0.00,,,0.00,meteohub,2013-07-13 21:20:00,
2013-07-13 17:22:00,84.4,84.4,30.43,SE,135,2.0,2.0,0,0.00,,,0.00,meteohub,2013-07-13 21:22:00,
2013-07-13 17:24:00,84.7,84.7,30.43,South,180,2.0,2.0,0,0.00,,,0.00,meteohub,2013-07-13 21:24:00,
2013-07-13 17:25:00,84.9,84.9,30.43,East,90,2.0,2.0,0,0.00,,,0.00,meteohub,2013-07-13 21:25:00,
2013-07-13 17:26:00,85.1,85.1,30.44,SE,135,2.0,2.0,0,0.00,,,0.00,meteohub,2013-07-13 21:26:00,
2013-07-13 17:27:00,85.3,85.3,30.44,East,90,2.0,2.0,0,0.00,,,0.00,meteohub,2013-07-13 21:27:00,
2013-07-13 17:28:00,85.3,85.3,30.44,East,90,2.0,2.0,0,0.00,,,0.00,meteohub,2013-07-13 21:28:00,
2013-07-13 17:30:00,85.5,85.5,30.44,East,90,2.0,2.0,0,0.00,,,0.00,meteohub,2013-07-13 21:30:00,
2013-07-13 17:32:00,85.8,85.8,30.44,SE,135,2.0,2.0,0,0.00,,,0.00,meteohub,2013-07-13 21:32:00,
2013-07-13 17:33:00,86.2,86.2,30.44,NE,45,3.0,3.0,0,0.00,,,0.00,meteohub,2013-07-13 21:33:00,
2013-07-13 17:35:00,85.3,85.3,30.44,East,90,3.0,3.0,0,0.00,,,0.00,meteohub,2013-07-13 21:35:00,
2013-07-13 17:36:00,84.6,84.6,30.44,SE,135,4.0,4.0,0,0.00,,,0.00,meteohub,2013-07-13 21:36:00,
2013-07-13 17:37:00,84.0,84.0,30.44,East,90,4.0,4.0,0,0.00,,,0.00,meteohub,2013-07-13 21:37:00,
2013-07-13 17:38:00,83.3,83.3,30.44,NE,45,3.0,3.0,0,0.00,,,0.00,meteohub,2013-07-13 21:38:00,
2013-07-13 17:40:00,81.9,81.9,30.44,East,90,2.0,4.0,0,0.00,,,0.00,meteohub,2013-07-13 21:40:00,
2013-07-13 17:41:00,81.5,81.5,30.44,East,90,2.0,4.0,0,0.00,,,0.00,meteohub,2013-07-13 21:41:00,
2013-07-13 17:43:00,80.8,80.8,30.44,NE,45,2.0,4.0,0,0.00,,,0.00,meteohub,2013-07-13 21:43:00,
2013-07-13 17:44:00,80.8,80.8,30.44,East,90,2.0,4.0,0,0.00,,,0.00,meteohub,2013-07-13 21:44:00,
2013-07-13 17:46:00,81.0,81.0,30.44,East,90,2.0,4.0,0,0.00,,,0.00,meteohub,2013-07-13 21:46:00,
2013-07-13 17:47:00,81.0,81.0,30.44,East,90,2.0,4.0,0,0.00,,,0.00,meteohub,2013-07-13 21:47:00,
2013-07-13 17:49:00,81.0,81.0,30.44,SE,135,2.0,4.0,0,0.00,,,0.00,meteohub,2013-07-13 21:49:00,
2013-07-13 17:50:00,80.8,80.8,30.44,NW,315,4.0,4.0,0,0.00,,,0.00,meteohub,2013-07-13 21:50:00,
2013-07-13 17:51:00,80.8,80.8,30.44,East,90,2.0,4.0,0,0.00,,,0.00,meteohub,2013-07-13 21:51:00,
2013-07-13 17:52:00,80.8,80.8,30.44,East,90,2.0,4.0,0,0.00,,,0.00,meteohub,2013-07-13 21:52:00,
2013-07-13 17:54:00,81.0,81.0,30.44,East,90,2.0,4.0,0,0.00,,,0.00,meteohub,2013-07-13 21:54:00,
2013-07-13 17:55:00,81.3,81.3,30.44,East,90,2.0,4.0,0,0.00,,,0.00,meteohub,2013-07-13 21:55:00,
2013-07-13 17:57:00,81.7,81.7,30.44,South,180,0.0,4.0,0,0.00,,,0.00,meteohub,2013-07-13 21:57:00,
2013-07-13 17:59:00,82.4,82.4,30.44,SE,135,0.0,4.0,0,0.00,,,0.00,meteohub,2013-07-13 21:59:00,
2013-07-13 18:00:00,82.4,82.4,30.44,SE,135,0.0,4.0,0,0.00,,,0.00,meteohub,2013-07-13 22:00:00,
2013-07-13 18:01:00,82.4,82.4,30.44,SE,135,0.0,4.0,0,0.00,,,0.00,meteohub,2013-07-13 22:01:00,
2013-07-13 18:02:00,82.4,82.4,30.44,SE,135,0.0,4.0,0,0.00,,,0.00,meteohub,2013-07-13 22:02:00,
2013-07-13 18:03:00,82.4,82.4,30.44,SE,135,0.0,4.0,0,0.00,,,0.00,meteohub,2013-07-13 22:03:00,
2013-07-13 18:05:00,82.4,82.4,30.44,SE,135,0.0,2.0,0,0.00,,,0.00,meteohub,2013-07-13 22:05:00,
2013-07-13 18:06:00,82.4,82.4,30.44,SE,135,0.0,2.0,0,0.00,,,0.00,meteohub,2013-07-13 22:06:00,
2013-07-13 18:07:00,82.4,82.4,30.45,SE,135,0.0,2.0,0,0.00,,,0.00,meteohub,2013-07-13 22:07:00,
2013-07-13 18:08:00,83.7,83.7,30.45,NE,45,4.0,4.0,0,0.00,,,0.00,meteohub,2013-07-13 22:08:00,
2013-07-13 18:10:00,83.8,83.8,30.44,South,180,4.0,5.0,0,0.00,,,0.00,meteohub,2013-07-13 22:10:00,
2013-07-13 18:11:00,83.8,83.8,30.44,South,180,4.0,5.0,0,0.00,,,0.00,meteohub,2013-07-13 22:11:00,
2013-07-13 18:12:00,83.8,83.8,30.45,West,270,4.0,5.0,0,0.00,,,0.00,meteohub,2013-07-13 22:12:00,
2013-07-13 18:13:00,83.8,83.8,30.45,SE,135,4.0,5.0,0,0.00,,,0.00,meteohub,2013-07-13 22:13:00,
2013-07-13 18:16:00,84.0,84.0,30.44,SE,135,2.0,5.0,0,0.00,,,0.00,meteohub,2013-07-13 22:16:00,
2013-07-13 18:17:00,84.2,84.2,30.44,West,270,1.0,5.0,0,0.00,,,0.00,meteohub,2013-07-13 22:17:00,
2013-07-13 18:18:00,84.7,84.7,30.44,NE,45,4.0,5.0,0,0.00,,,0.00,meteohub,2013-07-13 22:18:00,
2013-07-13 18:20:00,84.6,84.6,30.45,NE,45,6.0,6.0,0,0.00,,,0.00,meteohub,2013-07-13 22:20:00,
2013-07-13 18:21:00,84.2,84.2,30.45,East,90,2.0,5.0,0,0.00,,,0.00,meteohub,2013-07-13 22:21:00,
2013-07-13 18:22:00,84.2,84.2,30.45,East,90,2.0,5.0,0,0.00,,,0.00,meteohub,2013-07-13 22:22:00,
2013-07-13 18:25:00,84.0,84.0,30.45,South,180,2.0,6.0,0,0.00,,,0.00,meteohub,2013-07-13 22:25:00,
2013-07-13 18:27:00,83.8,83.8,30.45,East,90,2.0,6.0,0,0.00,,,0.00,meteohub,2013-07-13 22:27:00,
2013-07-13 18:30:00,83.8,83.8,30.45,East,90,2.0,6.0,0,0.00,,,0.00,meteohub,2013-07-13 22:30:00,
2013-07-13 18:31:00,83.8,83.8,30.45,East,90,2.0,6.0,0,0.00,,,0.00,meteohub,2013-07-13 22:31:00,
2013-07-13 18:32:00,83.8,83.8,30.45,NE,45,1.0,6.0,0,0.00,,,0.00,meteohub,2013-07-13 22:32:00,
2013-07-13 18:34:00,84.0,84.0,30.45,East,90,2.0,6.0,0,0.00,,,0.00,meteohub,2013-07-13 22:34:00,
2013-07-13 18:37:00,84.2,84.2,30.45,NE,45,2.0,6.0,0,0.00,,,0.00,meteohub,2013-07-13 22:37:00,
2013-07-13 18:38:00,84.0,84.0,30.45,East,90,2.0,6.0,0,0.00,,,0.00,meteohub,2013-07-13 22:38:00,
2013-07-13 18:39:00,83.8,83.8,30.45,NW,315,2.0,6.0,0,0.00,,,0.00,meteohub,2013-07-13 22:39:00,
2013-07-13 18:42:00,83.1,83.1,30.45,East,90,3.0,3.0,0,0.00,,,0.00,meteohub,2013-07-13 22:42:00,
2013-07-13 18:43:00,82.9,82.9,30.45,NE,45,2.0,3.0,0,0.00,,,0.00,meteohub,2013-07-13 22:43:00,
2013-07-13 18:44:00,82.4,82.4,30.45,East,90,2.0,3.0,0,0.00,,,0.00,meteohub,2013-07-13 22:44:00,
2013-07-13 18:46:00,82.4,82.4,30.45,West,270,1.0,3.0,0,0.00,,,0.00,meteohub,2013-07-13 22:46:00,
2013-07-13 18:47:00,82.4,82.4,30.45,West,270,1.0,3.0,0,0.00,,,0.00,meteohub,2013-07-13 22:47:00,
2013-07-13 18:48:00,82.6,82.6,30.45,NW,315,0.0,3.0,0,0.00,,,0.00,meteohub,2013-07-13 22:48:00,
2013-07-13 18:50:00,83.3,83.3,30.45,NE,45,2.0,3.0,0,0.00,,,0.00,meteohub,2013-07-13 22:50:00,
2013-07-13 18:52:00,83.3,83.3,30.45,NE,45,2.0,3.0,0,0.00,,,0.00,meteohub,2013-07-13 22:52:00,
2013-07-13 18:53:00,83.3,83.3,30.45,East,90,2.0,3.0,0,0.00,,,0.00,meteohub,2013-07-13 22:53:00,
2013-07-13 18:54:00,83.1,83.1,30.45,East,90,2.0,3.0,0,0.00,,,0.00,meteohub,2013-07-13 22:54:00,
2013-07-13 18:56:00,83.1,83.1,30.45,East,90,0.0,3.0,0,0.00,,,0.00,meteohub,2013-07-13 22:56:00,
2013-07-13 18:57:00,83.1,83.1,30.45,NE,45,1.0,3.0,0,0.00,,,0.00,meteohub,2013-07-13 22:57:00,
2013-07-13 18:58:00,83.1,83.1,30.45,NE,45,1.0,3.0,0,0.00,,,0.00,meteohub,2013-07-13 22:58:00,
2013-07-13 18:59:00,82.9,82.9,30.45,East,90,1.0,3.0,0,0.00,,,0.00,meteohub,2013-07-13 22:59:00,
2013-07-13 19:02:00,82.8,82.8,30.45,East,90,1.0,3.0,0,0.00,,,0.00,meteohub,2013-07-13 23:02:00,
2013-07-13 19:03:00,82.8,82.8,30.45,East,90,1.0,3.0,0,0.00,,,0.00,meteohub,2013-07-13 23:03:00,
2013-07-13 19:04:00,82.8,82.8,30.45,East,90,1.0,3.0,0,0.00,,,0.00,meteohub,2013-07-13 23:04:00,
2013-07-13 19:06:00,82.8,82.8,30.45,East,90,1.0,3.0,0,0.00,,,0.00,meteohub,2013-07-13 23:06:00,
2013-07-13 19:08:00,82.8,82.8,30.45,East,90,1.0,3.0,0,0.00,,,0.00,meteohub,2013-07-13 23:08:00,
2013-07-13 19:10:00,78.3,78.3,30.45,NE,45,0.0,3.0,0,0.00,,,0.00,meteohub,2013-07-13 23:10:00,
2013-07-13 19:12:00,77.7,77.7,30.45,NE,45,0.0,1.0,0,0.00,,,0.00,meteohub,2013-07-13 23:12:00,
2013-07-13 19:14:00,77.4,77.4,30.45,East,90,0.0,1.0,0,0.00,,,0.00,meteohub,2013-07-13 23:14:00,
2013-07-13 19:15:00,77.2,77.2,30.45,East,90,0.0,1.0,0,0.00,,,0.00,meteohub,2013-07-13 23:15:00,
2013-07-13 19:17:00,77.2,77.2,30.45,NW,315,0.0,1.0,0,0.00,,,0.00,meteohub,2013-07-13 23:17:00,
2013-07-13 19:19:00,77.4,77.4,30.45,NE,45,0.0,1.0,0,0.00,,,0.00,meteohub,2013-07-13 23:19:00,
2013-07-13 19:20:00,77.4,77.4,30.45,NE,45,0.0,1.0,0,0.00,,,0.00,meteohub,2013-07-13 23:20:00,
2013-07-13 19:21:00,77.4,77.4,30.45,NE,45,0.0,1.0,0,0.00,,,0.00,meteohub,2013-07-13 23:21:00,
2013-07-13 19:23:00,77.0,77.0,30.45,NE,45,0.0,1.0,0,0.00,,,0.00,meteohub,2013-07-13 23:23:00,
2013-07-13 19:26:00,76.6,76.6,30.45,East,90,0.0,0.0,0,0.00,,,0.00,meteohub,2013-07-13 23:26:00,
2013-07-13 19:27:00,76.3,76.3,30.46,East,90,0.0,0.0,0,0.00,,,0.00,meteohub,2013-07-13 23:27:00,
2013-07-13 19:29:00,75.7,75.7,30.45,NE,45,2.0,0.0,0,0.00,,,0.00,meteohub,2013-07-13 23:29:00,
2013-07-13 19:32:00,75.4,75.4,30.45,NE,45,0.0,0.0,0,0.00,,,0.00,meteohub,2013-07-13 23:32:00,
2013-07-13 19:34:00,75.2,75.2,30.46,NE,45,0.0,0.0,0,0.00,,,0.00,meteohub,2013-07-13 23:34:00,
2013-07-13 19:36:00,75.0,75.0,30.45,NE,45,0.0,2.0,0,0.00,,,0.00,meteohub,2013-07-13 23:36:00,
2013-07-13 19:37:00,75.0,75.0,30.45,NE,45,0.0,2.0,0,0.00,,,0.00,meteohub,2013-07-13 23:37:00,
2013-07-13 19:38:00,74.8,74.8,30.45,SE,135,0.0,2.0,0,0.00,,,0.00,meteohub,2013-07-13 23:38:00,
2013-07-13 19:39:00,74.8,74.8,30.45,SE,135,0.0,2.0,0,0.00,,,0.00,meteohub,2013-07-13 23:39:00,
2013-07-13 19:41:00,74.8,74.8,30.45,SE,135,1.0,2.0,0,0.00,,,0.00,meteohub,2013-07-13 23:41:00,
2013-07-13 19:42:00,74.5,74.5,30.45,East,90,0.0,2.0,0,0.00,,,0.00,meteohub,2013-07-13 23:42:00,
2013-07-13 19:43:00,74.3,74.3,30.45,East,90,2.0,2.0,0,0.00,,,0.00,meteohub,2013-07-13 23:43:00,
2013-07-13 19:44:00,74.3,74.3,30.45,East,90,2.0,2.0,0,0.00,,,0.00,meteohub,2013-07-13 23:44:00,
2013-07-13 19:45:00,74.1,74.1,30.45,East,90,2.0,2.0,0,0.00,,,0.00,meteohub,2013-07-13 23:45:00,
2013-07-13 19:46:00,73.8,73.8,30.45,East,90,2.0,2.0,0,0.00,,,0.00,meteohub,2013-07-13 23:46:00,
2013-07-13 19:48:00,73.6,73.6,30.45,East,90,0.0,2.0,0,0.00,,,0.00,meteohub,2013-07-13 23:48:00,
2013-07-13 19:49:00,73.4,73.4,30.45,East,90,2.0,2.0,0,0.00,,,0.00,meteohub,2013-07-13 23:49:00,
2013-07-13 19:51:00,73.0,73.0,30.45,East,90,2.0,2.0,0,0.00,,,0.00,meteohub,2013-07-13 23:51:00,
2013-07-13 19:52:00,73.0,73.0,30.45,East,90,2.0,2.0,0,0.00,,,0.00,meteohub,2013-07-13 23:52:00,
2013-07-13 19:54:00,72.7,72.7,30.45,East,90,1.0,2.0,0,0.00,,,0.00,meteohub,2013-07-13 23:54:00,
2013-07-13 19:56:00,72.7,72.7,30.45,East,90,2.0,2.0,0,0.00,,,0.00,meteohub,2013-07-13 23:56:00,
2013-07-13 19:57:00,72.5,72.5,30.45,East,90,2.0,2.0,0,0.00,,,0.00,meteohub,2013-07-13 23:57:00,
2013-07-13 19:59:00,72.5,72.5,30.45,East,90,2.0,2.0,0,0.00,,,0.00,meteohub,2013-07-13 23:59:00,
2013-07-13 20:00:00,72.5,72.5,30.45,East,90,2.0,2.0,0,0.00,,,0.00,meteohub,2013-07-14 00:00:00,
2013-07-13 20:01:00,72.5,72.5,30.45,East,90,2.0,2.0,0,0.00,,,0.00,meteohub,2013-07-14 00:01:00,
2013-07-13 20:02:00,72.5,72.5,30.46,East,90,2.0,2.0,0,0.00,,,0.00,meteohub,2013-07-14 00:02:00,
2013-07-13 20:03:00,72.5,72.5,30.45,East,90,2.0,2.0,0,0.00,,,0.00,meteohub,2013-07-14 00:03:00,
2013-07-13 20:05:00,72.5,72.5,30.46,East,90,2.0,2.0,0,0.00,,,0.00,meteohub,2013-07-14 00:05:00,
2013-07-13 20:06:00,72.5,72.5,30.45,East,90,2.0,2.0,0,0.00,,,0.00,meteohub,2013-07-14 00:06:00,
2013-07-13 20:07:00,72.5,72.5,30.45,East,90,2.0,2.0,0,0.00,,,0.00,meteohub,2013-07-14 00:07:00,
2013-07-13 20:08:00,72.5,72.5,30.46,East,90,2.0,2.0,0,0.00,,,0.00,meteohub,2013-07-14 00:08:00,
2013-07-13 20:09:00,72.3,72.3,30.46,East,90,2.0,2.0,0,0.00,,,0.00,meteohub,2013-07-14 00:09:00,
2013-07-13 20:12:00,72.1,72.1,30.46,East,90,2.0,2.0,0,0.00,,,0.00,meteohub,2013-07-14 00:12:00,
2013-07-13 20:13:00,72.1,72.1,30.46,East,90,2.0,2.0,0,0.00,,,0.00,meteohub,2013-07-14 00:13:00,
2013-07-13 20:14:00,72.1,72.1,30.47,NE,45,2.0,2.0,0,0.00,,,0.00,meteohub,2013-07-14 00:14:00,
2013-07-13 20:17:00,72.1,72.1,30.46,NE,45,0.0,2.0,0,0.00,,,0.00,meteohub,2013-07-14 00:17:00,
2013-07-13 20:18:00,72.0,72.0,30.47,NE,45,0.0,2.0,0,0.00,,,0.00,meteohub,2013-07-14 00:18:00,
2013-07-13 20:19:00,72.0,72.0,30.46,NE,45,0.0,2.0,0,0.00,,,0.00,meteohub,2013-07-14 00:19:00,
2013-07-13 20:22:00,72.0,72.0,30.46,NE,45,0.0,2.0,0,0.00,,,0.00,meteohub,2013-07-14 00:22:00,
2013-07-13 20:23:00,72.1,72.1,30.47,NE,45,0.0,2.0,0,0.00,,,0.00,meteohub,2013-07-14 00:23:00,
2013-07-13 20:24:00,72.1,72.1,30.46,East,90,0.0,2.0,0,0.00,,,0.00,meteohub,2013-07-14 00:24:00,
2013-07-13 20:25:00,72.0,72.0,30.46,East,90,0.0,2.0,0,0.00,,,0.00,meteohub,2013-07-14 00:25:00,
2013-07-13 20:28:00,72.0,72.0,30.46,East,90,0.0,2.0,0,0.00,,,0.00,meteohub,2013-07-14 00:28:00,
2013-07-13 20:30:00,71.8,71.8,30.46,East,90,0.0,2.0,0,0.00,,,0.00,meteohub,2013-07-14 00:30:00,
2013-07-13 20:31:00,71.8,71.8,30.47,East,90,0.0,1.0,0,0.00,,,0.00,meteohub,2013-07-14 00:31:00,
2013-07-13 20:33:00,71.8,71.8,30.46,East,90,0.0,1.0,0,0.00,,,0.00,meteohub,2013-07-14 00:33:00,
2013-07-13 20:34:00,71.8,71.8,30.46,East,90,0.0,1.0,0,0.00,,,0.00,meteohub,2013-07-14 00:34:00,
2013-07-13 20:35:00,71.6,71.6,30.46,East,90,0.0,0.0,0,0.00,,,0.00,meteohub,2013-07-14 00:35:00,
2013-07-13 20:36:00,71.6,71.6,30.47,East,90,0.0,0.0,0,0.00,,,0.00,meteohub,2013-07-14 00:36:00,
2013-07-13 20:39:00,71.6,71.6,30.47,East,90,3.0,0.0,0,0.00,,,0.00,meteohub,2013-07-14 00:39:00,
2013-07-13 20:40:00,71.6,71.6,30.46,East,90,2.0,3.0,0,0.00,,,0.00,meteohub,2013-07-14 00:40:00,
2013-07-13 20:41:00,71.6,71.6,30.46,East,90,2.0,3.0,0,0.00,,,0.00,meteohub,2013-07-14 00:41:00,
2013-07-13 20:42:00,71.4,71.4,30.46,East,90,2.0,3.0,0,0.00,,,0.00,meteohub,2013-07-14 00:42:00,
2013-07-13 20:44:00,71.4,71.4,30.47,East,90,2.0,3.0,0,0.00,,,0.00,meteohub,2013-07-14 00:44:00,
2013-07-13 20:46:00,71.2,71.2,30.46,East,90,2.0,3.0,0,0.00,,,0.00,meteohub,2013-07-14 00:46:00,
2013-07-13 20:47:00,71.2,71.2,30.46,East,90,2.0,3.0,0,0.00,,,0.00,meteohub,2013-07-14 00:47:00,
2013-07-13 20:48:00,71.2,71.2,30.46,East,90,2.0,3.0,0,0.00,,,0.00,meteohub,2013-07-14 00:48:00,
2013-07-13 20:50:00,71.1,71.1,30.46,East,90,2.0,3.0,0,0.00,,,0.00,meteohub,2013-07-14 00:50:00,
2013-07-13 20:52:00,71.1,71.1,30.46,East,90,2.0,3.0,0,0.00,,,0.00,meteohub,2013-07-14 00:52:00,
2013-07-13 20:53:00,70.9,70.9,30.47,East,90,2.0,3.0,0,0.00,,,0.00,meteohub,2013-07-14 00:53:00,
2013-07-13 20:54:00,70.9,70.9,30.47,East,90,2.0,3.0,0,0.00,,,0.00,meteohub,2013-07-14 00:54:00,
2013-07-13 20:57:00,70.9,70.9,30.47,East,90,2.0,2.0,0,0.00,,,0.00,meteohub,2013-07-14 00:57:00,
2013-07-13 20:58:00,71.1,71.1,30.47,East,90,2.0,2.0,0,0.00,,,0.00,meteohub,2013-07-14 00:58:00,
2013-07-13 20:59:00,71.1,71.1,30.47,East,90,2.0,2.0,0,0.00,,,0.00,meteohub,2013-07-14 00:59:00,
2013-07-13 21:00:00,71.1,71.1,30.47,East,90,2.0,2.0,0,0.00,,,0.00,meteohub,2013-07-14 01:00:00,
2013-07-13 21:01:00,71.1,71.1,30.47,East,90,2.0,2.0,0,0.00,,,0.00,meteohub,2013-07-14 01:01:00,
2013-07-13 21:03:00,71.1,71.1,30.47,East,90,2.0,2.0,0,0.00,,,0.00,meteohub,2013-07-14 01:03:00,
2013-07-13 21:04:00,71.1,71.1,30.47,East,90,2.0,2.0,0,0.00,,,0.00,meteohub,2013-07-14 01:04:00,
2013-07-13 21:05:00,71.1,71.1,30.47,East,90,2.0,2.0,0,0.00,,,0.00,meteohub,2013-07-14 01:05:00,
2013-07-13 21:06:00,71.1,71.1,30.47,East,90,2.0,2.0,0,0.00,,,0.00,meteohub,2013-07-14 01:06:00,
2013-07-13 21:09:00,70.7,70.7,30.47,East,90,2.0,2.0,0,0.00,,,0.00,meteohub,2013-07-14 01:09:00,
2013-07-13 21:11:00,70.7,70.7,30.47,East,90,2.0,2.0,0,0.00,,,0.00,meteohub,2013-07-14 01:11:00,
2013-07-13 21:12:00,70.7,70.7,30.47,East,90,2.0,2.0,0,0.00,,,0.00,meteohub,2013-07-14 01:12:00,
2013-07-13 21:14:00,70.5,70.5,30.47,East,90,3.0,3.0,0,0.00,,,0.00,meteohub,2013-07-14 01:14:00,
2013-07-13 21:16:00,70.5,70.5,30.47,East,90,2.0,3.0,0,0.00,,,0.00,meteohub,2013-07-14 01:16:00,
2013-07-13 21:18:00,70.5,70.5,30.48,East,90,2.0,3.0,0,0.00,,,0.00,meteohub,2013-07-14 01:18:00,
2013-07-13 21:19:00,70.5,70.5,30.48,East,90,2.0,3.0,0,0.00,,,0.00,meteohub,2013-07-14 01:19:00,
2013-07-13 21:21:00,70.5,70.5,30.48,East,90,2.0,3.0,0,0.00,,,0.00,meteohub,2013-07-14 01:21:00,
2013-07-13 21:22:00,70.5,70.5,30.48,East,90,2.0,3.0,0,0.00,,,0.00,meteohub,2013-07-14 01:22:00,
2013-07-13 21:23:00,70.5,70.5,30.48,East,90,2.0,3.0,0,0.00,,,0.00,meteohub,2013-07-14 01:23:00,
2013-07-13 21:24:00,70.5,70.5,30.48,East,90,2.0,3.0,0,0.00,,,0.00,meteohub,2013-07-14 01:24:00,
2013-07-13 21:27:00,70.3,70.3,30.48,East,90,2.0,3.0,0,0.00,,,0.00,meteohub,2013-07-14 01:27:00,
2013-07-13 21:28:00,70.3,70.3,30.48,East,90,2.0,3.0,0,0.00,,,0.00,meteohub,2013-07-14 01:28:00,
2013-07-13 21:29:00,70.3,70.3,30.48,East,90,3.0,3.0,0,0.00,,,0.00,meteohub,2013-07-14 01:29:00,
2013-07-13 21:31:00,70.2,70.2,30.48,East,90,3.0,3.0,0,0.00,,,0.00,meteohub,2013-07-14 01:31:00,
2013-07-13 21:33:00,70.0,70.0,30.48,East,90,2.0,2.0,0,0.00,,,0.00,meteohub,2013-07-14 01:33:00,
2013-07-13 21:34:00,70.0,70.0,30.48,East,90,3.0,3.0,0,0.00,,,0.00,meteohub,2013-07-14 01:34:00,
2013-07-13 21:36:00,70.0,70.0,30.48,East,90,2.0,3.0,0,0.00,,,0.00,meteohub,2013-07-14 01:36:00,
2013-07-13 21:38:00,70.0,70.0,30.49,East,90,2.0,3.0,0,0.00,,,0.00,meteohub,2013-07-14 01:38:00,
2013-07-13 21:39:00,70.0,70.0,30.49,East,90,2.0,3.0,0,0.00,,,0.00,meteohub,2013-07-14 01:39:00,
2013-07-13 21:41:00,70.0,70.0,30.49,East,90,3.0,3.0,0,0.00,,,0.00,meteohub,2013-07-14 01:41:00,
2013-07-13 21:42:00,70.0,70.0,30.49,East,90,3.0,3.0,0,0.00,,,0.00,meteohub,2013-07-14 01:42:00,
2013-07-13 21:44:00,70.2,70.2,30.49,East,90,2.0,3.0,0,0.00,,,0.00,meteohub,2013-07-14 01:44:00,
2013-07-13 21:47:00,70.2,70.2,30.49,East,90,2.0,3.0,0,0.00,,,0.00,meteohub,2013-07-14 01:47:00,
2013-07-13 21:48:00,70.2,70.2,30.49,East,90,2.0,3.0,0,0.00,,,0.00,meteohub,2013-07-14 01:48:00,
2013-07-13 21:49:00,70.2,70.2,30.49,East,90,2.0,3.0,0,0.00,,,0.00,meteohub,2013-07-14 01:49:00,
2013-07-13 21:50:00,70.2,70.2,30.49,East,90,2.0,3.0,0,0.00,,,0.00,meteohub,2013-07-14 01:50:00,
2013-07-13 21:51:00,70.2,70.2,30.49,East,90,2.0,3.0,0,0.00,,,0.00,meteohub,2013-07-14 01:51:00,
2013-07-13 21:52:00,70.2,70.2,30.48,SE,135,2.0,3.0,0,0.00,,,0.00,meteohub,2013-07-14 01:52:00,
2013-07-13 21:53:00,70.2,70.2,30.49,East,90,3.0,3.0,0,0.00,,,0.00,meteohub,2013-07-14 01:53:00,
2013-07-13 21:54:00,70.2,70.2,30.48,East,90,3.0,3.0,0,0.00,,,0.00,meteohub,2013-07-14 01:54:00,
2013-07-13 21:55:00,70.2,70.2,30.49,East,90,3.0,3.0,0,0.00,,,0.00,meteohub,2013-07-14 01:55:00,
2013-07-13 21:57:00,70.2,70.2,30.49,East,90,2.0,3.0,0,0.00,,,0.00,meteohub,2013-07-14 01:57:00,
2013-07-13 21:59:00,70.2,70.2,30.49,East,90,3.0,3.0,0,0.00,,,0.00,meteohub,2013-07-14 01:59:00,
2013-07-13 22:00:00,70.2,70.2,30.49,East,90,3.0,3.0,0,0.00,,,0.00,meteohub,2013-07-14 02:00:00,
2013-07-13 22:01:00,70.2,70.2,30.49,East,90,3.0,3.0,0,0.00,,,0.00,meteohub,2013-07-14 02:01:00,
2013-07-13 22:02:00,70.2,70.2,30.49,East,90,3.0,3.0,0,0.00,,,0.00,meteohub,2013-07-14 02:02:00,
2013-07-13 22:04:00,70.3,70.3,30.49,NE,45,3.0,3.0,0,0.00,,,0.00,meteohub,2013-07-14 02:04:00,
2013-07-13 22:05:00,70.3,70.3,30.49,East,90,3.0,3.0,0,0.00,,,0.00,meteohub,2013-07-14 02:05:00,
2013-07-13 22:06:00,70.3,70.3,30.49,East,90,4.0,4.0,0,0.00,,,0.00,meteohub,2013-07-14 02:06:00,
2013-07-13 22:07:00,70.3,70.3,30.49,East,90,3.0,3.0,0,0.00,,,0.00,meteohub,2013-07-14 02:07:00,
2013-07-13 22:08:00,70.3,70.3,30.49,East,90,3.0,3.0,0,0.00,,,0.00,meteohub,2013-07-14 02:08:00,
2013-07-13 22:10:00,70.5,70.5,30.49,East,90,4.0,4.0,0,0.00,,,0.00,meteohub,2013-07-14 02:10:00,
2013-07-13 22:11:00,70.5,70.5,30.50,East,90,4.0,4.0,0,0.00,,,0.00,meteohub,2013-07-14 02:11:00,
2013-07-13 22:12:00,70.5,70.5,30.50,East,90,4.0,4.0,0,0.00,,,0.00,meteohub,2013-07-14 02:12:00,
2013-07-13 22:13:00,70.7,70.7,30.50,East,90,4.0,4.0,0,0.00,,,0.00,meteohub,2013-07-14 02:13:00,
2013-07-13 22:14:00,70.7,70.7,30.50,East,90,4.0,4.0,0,0.00,,,0.00,meteohub,2013-07-14 02:14:00,
2013-07-13 22:16:00,70.7,70.7,30.50,South,180,4.0,4.0,0,0.00,,,0.00,meteohub,2013-07-14 02:16:00,
2013-07-13 22:17:00,70.7,70.7,30.50,East,90,4.0,4.0,0,0.00,,,0.00,meteohub,2013-07-14 02:17:00,
2013-07-13 22:20:00,70.7,70.7,30.50,East,90,3.0,4.0,0,0.00,,,0.00,meteohub,2013-07-14 02:20:00,
2013-07-13 22:21:00,70.7,70.7,30.50,East,90,3.0,4.0,0,0.00,,,0.00,meteohub,2013-07-14 02:21:00,
2013-07-13 22:22:00,70.7,70.7,30.50,East,90,4.0,4.0,0,0.00,,,0.00,meteohub,2013-07-14 02:22:00,
2013-07-13 22:23:00,70.7,70.7,30.51,East,90,5.0,5.0,0,0.00,,,0.00,meteohub,2013-07-14 02:23:00,
2013-07-13 22:25:00,70.9,70.9,30.51,East,90,3.0,5.0,0,0.00,,,0.00,meteohub,2013-07-14 02:25:00,
2013-07-13 22:27:00,70.9,70.9,30.51,East,90,3.0,5.0,0,0.00,,,0.00,meteohub,2013-07-14 02:27:00,
2013-07-13 22:28:00,70.9,70.9,30.50,East,90,3.0,5.0,0,0.00,,,0.00,meteohub,2013-07-14 02:28:00,
2013-07-13 22:29:00,70.9,70.9,30.51,East,90,3.0,5.0,0,0.00,,,0.00,meteohub,2013-07-14 02:29:00,
2013-07-13 22:31:00,70.9,70.9,30.51,East,90,3.0,5.0,0,0.00,,,0.00,meteohub,2013-07-14 02:31:00,
2013-07-13 22:32:00,70.9,70.9,30.51,East,90,3.0,5.0,0,0.00,,,0.00,meteohub,2013-07-14 02:32:00,
2013-07-13 22:34:00,70.9,70.9,30.51,East,90,3.0,5.0,0,0.00,,,0.00,meteohub,2013-07-14 02:34:00,
2013-07-13 22:35:00,70.9,70.9,30.51,East,90,3.0,5.0,0,0.00,,,0.00,meteohub,2013-07-14 02:35:00,
2013-07-13 22:37:00,70.9,70.9,30.50,East,90,3.0,5.0,0,0.00,,,0.00,meteohub,2013-07-14 02:37:00,
2013-07-13 22:38:00,70.9,70.9,30.50,East,90,3.0,5.0,0,0.00,,,0.00,meteohub,2013-07-14 02:38:00,
2013-07-13 22:39:00,70.9,70.9,30.51,East,90,3.0,5.0,0,0.00,,,0.00,meteohub,2013-07-14 02:39:00,
2013-07-13 22:40:00,70.9,70.9,30.50,NE,45,4.0,4.0,0,0.00,,,0.00,meteohub,2013-07-14 02:40:00,
2013-07-13 22:42:00,70.9,70.9,30.50,East,90,4.0,4.0,0,0.00,,,0.00,meteohub,2013-07-14 02:42:00,
2013-07-13 22:43:00,70.7,70.7,30.50,SE,135,4.0,4.0,0,0.00,,,0.00,meteohub,2013-07-14 02:43:00,
2013-07-13 22:45:00,70.7,70.7,30.51,SE,135,4.0,4.0,0,0.00,,,0.00,meteohub,2013-07-14 02:45:00,
2013-07-13 22:47:00,70.7,70.7,30.51,East,90,3.0,4.0,0,0.00,,,0.00,meteohub,2013-07-14 02:47:00,
2013-07-13 22:49:00,70.7,70.7,30.51,East,90,4.0,4.0,0,0.00,,,0.00,meteohub,2013-07-14 02:49:00,
2013-07-13 22:50:00,70.7,70.7,30.51,East,90,4.0,4.0,0,0.00,,,0.00,meteohub,2013-07-14 02:50:00,
2013-07-13 22:52:00,70.7,70.7,30.51,East,90,4.0,4.0,0,0.00,,,0.00,meteohub,2013-07-14 02:52:00,
2013-07-13 22:54:00,70.9,70.9,30.51,East,90,4.0,4.0,0,0.00,,,0.00,meteohub,2013-07-14 02:54:00,
2013-07-13 22:56:00,70.9,70.9,30.51,East,90,5.0,5.0,0,0.00,,,0.00,meteohub,2013-07-14 02:56:00,
2013-07-13 22:58:00,70.9,70.9,30.51,East,90,4.0,4.0,0,0.00,,,0.00,meteohub,2013-07-14 02:58:00,
2013-07-13 22:59:00,71.1,71.1,30.51,East,90,3.0,4.0,0,0.00,,,0.00,meteohub,2013-07-14 02:59:00,
2013-07-13 23:00:00,71.1,71.1,30.51,East,90,3.0,4.0,0,0.00,,,0.00,meteohub,2013-07-14 03:00:00,
2013-07-13 23:02:00,71.1,71.1,30.51,East,90,3.0,5.0,0,0.00,,,0.00,meteohub,2013-07-14 03:02:00,
2013-07-13 23:04:00,71.1,71.1,30.51,East,90,3.0,5.0,0,0.00,,,0.00,meteohub,2013-07-14 03:04:00,
2013-07-13 23:05:00,71.1,71.1,30.51,East,90,3.0,5.0,0,0.00,,,0.00,meteohub,2013-07-14 03:05:00,
2013-07-13 23:07:00,71.1,71.1,30.51,East,90,3.0,5.0,0,0.00,,,0.00,meteohub,2013-07-14 03:07:00,
2013-07-13 23:10:00,71.2,71.2,30.51,East,90,4.0,5.0,0,0.00,,,0.00,meteohub,2013-07-14 03:10:00,
2013-07-13 23:11:00,71.2,71.2,30.51,NE,45,7.0,7.0,0,0.00,,,0.00,meteohub,2013-07-14 03:11:00,
2013-07-13 23:12:00,71.1,71.1,30.51,WSW,248,4.0,5.0,0,0.00,,,0.00,meteohub,2013-07-14 03:12:00,
2013-07-13 23:13:00,71.1,71.1,30.51,East,90,4.0,5.0,0,0.00,,,0.00,meteohub,2013-07-14 03:13:00,
2013-07-13 23:15:00,71.1,71.1,30.51,SE,135,5.0,7.0,0,0.00,,,0.00,meteohub,2013-07-14 03:15:00,
2013-07-13 23:16:00,71.1,71.1,30.51,SE,135,5.0,7.0,0,0.00,,,0.00,meteohub,2013-07-14 03:16:00,
2013-07-13 23:18:00,71.2,71.2,30.51,East,90,4.0,7.0,0,0.00,,,0.00,meteohub,2013-07-14 03:18:00,
2013-07-13 23:21:00,71.2,71.2,30.51,East,90,6.0,7.0,0,0.00,,,0.00,meteohub,2013-07-14 03:21:00,
2013-07-13 23:23:00,71.2,71.2,30.51,East,90,3.0,7.0,0,0.00,,,0.00,meteohub,2013-07-14 03:23:00,
2013-07-13 23:24:00,71.2,71.2,30.51,East,90,3.0,7.0,0,0.00,,,0.00,meteohub,2013-07-14 03:24:00,
2013-07-13 23:27:00,71.2,71.2,30.51,East,90,2.0,7.0,0,0.00,,,0.00,meteohub,2013-07-14 03:27:00,
2013-07-13 23:29:00,71.2,71.2,30.51,East,90,4.0,7.0,0,0.00,,,0.00,meteohub,2013-07-14 03:29:00,
2013-07-13 23:30:00,71.2,71.2,30.51,East,90,3.0,6.0,0,0.00,,,0.00,meteohub,2013-07-14 03:30:00,
2013-07-13 23:32:00,71.2,71.2,30.51,SE,135,2.0,6.0,0,0.00,,,0.00,meteohub,2013-07-14 03:32:00,
2013-07-13 23:33:00,71.2,71.2,30.51,SE,135,2.0,6.0,0,0.00,,,0.00,meteohub,2013-07-14 03:33:00,
2013-07-13 23:34:00,71.2,71.2,30.51,NE,45,2.0,6.0,0,0.00,,,0.00,meteohub,2013-07-14 03:34:00,
2013-07-13 23:36:00,71.1,71.1,30.51,SE,135,2.0,6.0,0,0.00,,,0.00,meteohub,2013-07-14 03:36:00,
2013-07-13 23:37:00,71.1,71.1,30.51,East,90,3.0,6.0,0,0.00,,,0.00,meteohub,2013-07-14 03:37:00,
2013-07-13 23:38:00,71.1,71.1,30.51,East,90,2.0,6.0,0,0.00,,,0.00,meteohub,2013-07-14 03:38:00,
2013-07-13 23:41:00,71.1,71.1,30.51,East,90,4.0,4.0,0,0.00,,,0.00,meteohub,2013-07-14 03:41:00,
2013-07-13 23:42:00,71.1,71.1,30.51,East,90,4.0,4.0,0,0.00,,,0.00,meteohub,2013-07-14 03:42:00,
2013-07-13 23:43:00,71.1,71.1,30.51,East,90,4.0,4.0,0,0.00,,,0.00,meteohub,2013-07-14 03:43:00,
2013-07-13 23:44:00,70.9,70.9,30.51,East,90,4.0,4.0,0,0.00,,,0.00,meteohub,2013-07-14 03:44:00,
2013-07-13 23:47:00,70.7,70.7,30.51,East,90,3.0,4.0,0,0.00,,,0.00,meteohub,2013-07-14 03:47:00,
2013-07-13 23:48:00,70.7,70.7,30.51,East,90,4.0,4.0,0,0.00,,,0.00,meteohub,2013-07-14 03:48:00,
2013-07-13 23:49:00,70.7,70.7,30.51,East,90,4.0,4.0,0,0.00,,,0.00,meteohub,2013-07-14 03:49:00,
2013-07-13 23:53:00,70.7,70.7,30.51,East,90,4.0,4.0,0,0.00,,,0.00,meteohub,2013-07-14 03:53:00,
2013-07-13 23:54:00,70.7,70.7,30.50,NE,45,4.0,4.0,0,0.00,,,0.00,meteohub,2013-07-14 03:54:00,
2013-07-13 23:55:00,70.7,70.7,30.51,East,90,4.0,4.0,0,0.00,,,0.00,meteohub,2013-07-14 03:55:00,
2013-07-13 23:58:00,70.7,70.7,30.50,East,90,4.0,4.0,0,0.00,,,0.00,meteohub,2013-07-14 03:58:00,
2013-07-13 23:59:00,70.7,70.7,30.51,East,90,4.0,4.0,0,0.00,,,0.00,meteohub,2013-07-14 03:59:00,